UAL1735 PHOG-KDEN

Flight info

Callsign UAL1735
Flight time N/A
Altitude 39000
Route CLUTS R465 CREAN/N0485F410 R465 CINNY KO42E JAGWA OAL Q136 RUMPS KU51M LUDOH BUMMP SSKII4
Aircraft B772/H-SDE2E3FGHIJ5LORVWXY/LB1D1

Departure

Time 2026-05-05 05:59
Airport Kahului International Airport (PHOG)

Arrival

Time N/A
Airport Denver International Airport (KDEN)
Time Latitude Longitude Altitude Speed Heading
2026-05-05 05:33 20.89150 -156.43775 49 ft 0 kts 305°
2026-05-05 05:51 20.89144 -156.43766 49 ft 4 kts 305°
2026-05-05 05:52 20.89129 -156.43743 44 ft 4 kts 305°
2026-05-05 05:52 20.89113 -156.43719 46 ft 4 kts 305°
2026-05-05 05:52 20.89099 -156.43698 45 ft 3 kts 305°
2026-05-05 05:52 20.89091 -156.43675 43 ft 4 kts 251°
2026-05-05 05:53 20.89105 -156.43653 43 ft 4 kts 221°
2026-05-05 05:53 20.89127 -156.43635 45 ft 4 kts 214°
2026-05-05 05:53 20.89135 -156.43629 49 ft 0 kts 215°
2026-05-05 05:56 20.89116 -156.43643 47 ft 7 kts 216°
2026-05-05 05:57 20.89075 -156.43675 47 ft 7 kts 215°
2026-05-05 05:57 20.89043 -156.43699 49 ft 5 kts 213°
2026-05-05 05:57 20.89009 -156.43707 49 ft 5 kts 171°
2026-05-05 05:57 20.88980 -156.43684 49 ft 5 kts 135°
2026-05-05 05:58 20.88956 -156.43656 49 ft 5 kts 128°
2026-05-05 05:58 20.88940 -156.43622 48 ft 5 kts 94°
2026-05-05 05:58 20.88956 -156.43603 49 ft 0 kts 34°
2026-05-05 05:59 20.88963 -156.43598 49 ft 9 kts 34°
2026-05-05 05:59 20.89187 -156.43430 47 ft 85 kts 35°
2026-05-05 05:59 20.89910 -156.42894 164 ft 158 kts 37°
2026-05-05 05:59 20.90792 -156.42239 1271 ft 153 kts 34°
2026-05-05 06:00 20.91737 -156.41557 2133 ft 174 kts 34°
2026-05-05 06:00 20.92821 -156.40798 2414 ft 199 kts 37°
2026-05-05 06:00 20.93940 -156.39761 2645 ft 224 kts 43°
2026-05-05 06:00 20.95155 -156.38638 3042 ft 244 kts 41°
2026-05-05 06:01 20.96545 -156.37461 3564 ft 260 kts 40°
2026-05-05 06:01 20.97986 -156.36296 4504 ft 263 kts 39°
2026-05-05 06:01 20.99463 -156.35101 5305 ft 268 kts 39°
2026-05-05 06:01 21.00959 -156.33884 6134 ft 274 kts 38°
2026-05-05 06:02 21.02489 -156.32634 6916 ft 278 kts 38°
2026-05-05 06:02 21.04028 -156.31373 7736 ft 281 kts 38°
2026-05-05 06:02 21.05584 -156.30092 8554 ft 284 kts 39°
2026-05-05 06:02 21.07156 -156.28795 9312 ft 289 kts 38°
2026-05-05 06:03 21.08760 -156.27470 10076 ft 294 kts 37°
2026-05-05 06:03 21.10412 -156.26104 10525 ft 310 kts 37°
2026-05-05 06:03 21.12194 -156.24628 10710 ft 336 kts 37°
2026-05-05 06:03 21.14116 -156.23035 10896 ft 362 kts 37°
2026-05-05 06:04 21.16149 -156.21347 11368 ft 377 kts 37°
2026-05-05 06:04 21.18245 -156.19603 12047 ft 386 kts 36°
2026-05-05 06:04 21.20378 -156.17827 12851 ft 391 kts 37°
2026-05-05 06:04 21.22545 -156.16021 13644 ft 397 kts 37°
2026-05-05 06:05 21.24741 -156.14189 14328 ft 404 kts 36°
2026-05-05 06:05 21.26971 -156.12333 15083 ft 407 kts 36°
2026-05-05 06:05 21.29230 -156.10449 15735 ft 414 kts 36°
2026-05-05 06:05 21.31519 -156.08539 16389 ft 421 kts 35°
2026-05-05 06:06 21.33839 -156.06610 17106 ft 425 kts 36°
2026-05-05 06:06 21.36188 -156.04653 17756 ft 430 kts 36°
2026-05-05 06:06 21.38568 -156.02663 18325 ft 437 kts 36°
2026-05-05 06:06 21.40951 -156.00671 18848 ft 442 kts 36°
2026-05-05 06:07 21.43378 -155.98639 19484 ft 444 kts 37°
2026-05-05 06:07 21.45810 -155.96599 20173 ft 444 kts 36°
2026-05-05 06:07 21.48255 -155.94549 20788 ft 447 kts 37°
2026-05-05 06:07 21.50718 -155.92487 21288 ft 452 kts 36°
2026-05-05 06:08 21.53209 -155.90405 21819 ft 456 kts 36°
2026-05-05 06:08 21.55727 -155.88299 22298 ft 462 kts 36°
2026-05-05 06:08 21.58274 -155.86163 22794 ft 465 kts 36°
2026-05-05 06:08 21.60828 -155.84021 23418 ft 467 kts 36°
2026-05-05 06:09 21.63401 -155.81861 23896 ft 472 kts 36°
2026-05-05 06:09 21.65996 -155.79682 24347 ft 475 kts 36°
2026-05-05 06:09 21.68608 -155.77489 24806 ft 477 kts 36°
2026-05-05 06:09 21.71232 -155.75285 25267 ft 480 kts 36°
2026-05-05 06:10 21.73867 -155.73069 25718 ft 482 kts 36°
2026-05-05 06:10 21.76519 -155.70839 26135 ft 485 kts 36°
2026-05-05 06:10 21.79186 -155.68595 26540 ft 488 kts 36°
2026-05-05 06:10 21.81869 -155.66336 26948 ft 491 kts 36°
2026-05-05 06:11 21.84568 -155.64064 27323 ft 494 kts 36°
2026-05-05 06:11 21.87282 -155.61777 27675 ft 497 kts 36°
2026-05-05 06:11 21.90015 -155.59474 28021 ft 500 kts 36°
2026-05-05 06:11 21.92723 -155.57189 28375 ft 503 kts 36°
2026-05-05 06:12 21.95518 -155.54831 28706 ft 505 kts 36°
2026-05-05 06:12 21.98292 -155.52488 29026 ft 508 kts 36°
2026-05-05 06:12 22.01077 -155.50135 29316 ft 510 kts 36°
2026-05-05 06:12 22.03836 -155.47804 29599 ft 512 kts 36°
2026-05-05 06:13 22.06647 -155.45426 29884 ft 515 kts 36°
2026-05-05 06:13 22.09469 -155.43039 30134 ft 517 kts 36°
2026-05-05 06:13 22.12301 -155.40641 30371 ft 518 kts 35°
2026-05-05 06:13 22.15139 -155.38238 30618 ft 519 kts 35°
2026-05-05 06:14 22.17975 -155.35834 30935 ft 518 kts 35°
2026-05-05 06:14 22.20803 -155.33435 31276 ft 516 kts 35°
2026-05-05 06:14 22.23619 -155.31045 31605 ft 515 kts 35°
2026-05-05 06:14 22.26431 -155.28658 31918 ft 514 kts 35°
2026-05-05 06:15 22.29237 -155.26275 32244 ft 513 kts 35°
2026-05-05 06:15 22.32036 -155.23897 32528 ft 512 kts 35°
2026-05-05 06:15 22.34833 -155.21519 32817 ft 511 kts 35°
2026-05-05 06:15 22.37626 -155.19144 33140 ft 511 kts 35°
2026-05-05 06:16 22.40415 -155.16771 33421 ft 510 kts 35°
2026-05-05 06:16 22.43203 -155.14398 33718 ft 510 kts 35°
2026-05-05 06:16 22.45986 -155.12026 34041 ft 509 kts 35°
2026-05-05 06:16 22.48762 -155.09660 34334 ft 508 kts 34°
2026-05-05 06:17 22.51532 -155.07298 34572 ft 508 kts 34°
2026-05-05 06:17 22.54307 -155.04931 34807 ft 508 kts 34°
2026-05-05 06:17 22.57079 -155.02565 35046 ft 508 kts 34°
2026-05-05 06:17 22.59851 -155.00197 35277 ft 508 kts 34°
2026-05-05 06:18 22.62622 -154.97829 35520 ft 507 kts 34°
2026-05-05 06:18 22.65390 -154.95462 35746 ft 508 kts 34°
2026-05-05 06:18 22.68160 -154.93093 35961 ft 508 kts 34°
2026-05-05 06:18 22.70930 -154.90722 36182 ft 507 kts 34°
2026-05-05 06:19 22.73698 -154.88351 36424 ft 507 kts 34°
2026-05-05 06:19 22.76460 -154.85984 36644 ft 507 kts 34°
2026-05-05 06:19 22.79225 -154.83613 36859 ft 506 kts 34°
2026-05-05 06:19 22.81987 -154.81244 37071 ft 506 kts 34°
2026-05-05 06:20 22.84745 -154.78877 37279 ft 506 kts 34°
2026-05-05 06:20 22.87504 -154.76507 37489 ft 506 kts 34°
2026-05-05 06:20 22.90262 -154.74137 37693 ft 506 kts 34°
2026-05-05 06:20 22.92982 -154.71799 37877 ft 506 kts 34°
2026-05-05 06:21 22.95741 -154.69426 38058 ft 506 kts 34°
2026-05-05 06:21 22.98412 -154.66932 38255 ft 509 kts 40°
2026-05-05 06:21 23.00863 -154.64145 38435 ft 512 kts 45°
2026-05-05 06:21 23.03093 -154.61126 38611 ft 515 kts 52°
2026-05-05 06:22 23.05092 -154.57898 38757 ft 515 kts 53°
2026-05-05 06:22 23.07052 -154.54633 38893 ft 516 kts 54°
2026-05-05 06:22 23.09000 -154.51364 39022 ft 516 kts 54°
2026-05-05 06:22 23.10959 -154.48088 39082 ft 517 kts 54°
2026-05-05 06:23 23.14900 -154.41553 39154 ft 516 kts 53°
2026-05-05 06:23 23.18852 -154.35047 39157 ft 515 kts 53°
2026-05-05 06:24 23.22804 -154.28549 39155 ft 515 kts 53°
2026-05-05 06:24 23.26744 -154.22057 39167 ft 514 kts 53°
2026-05-05 06:25 23.30681 -154.15558 39163 ft 514 kts 53°
2026-05-05 06:25 23.34615 -154.09055 39166 ft 515 kts 53°
2026-05-05 06:26 23.38549 -154.02542 39172 ft 515 kts 53°
2026-05-05 06:26 23.42487 -153.96018 39167 ft 516 kts 53°
2026-05-05 06:27 23.48389 -153.86218 39171 ft 516 kts 53°
2026-05-05 06:28 23.51659 -153.80782 39169 ft 516 kts 53°
2026-05-05 06:28 23.55590 -153.74238 39171 ft 516 kts 53°
2026-05-05 06:29 23.59520 -153.67688 39184 ft 517 kts 53°
2026-05-05 06:29 23.63451 -153.61128 39180 ft 517 kts 53°
2026-05-05 06:30 23.67383 -153.54558 39173 ft 517 kts 53°
2026-05-05 06:30 23.71312 -153.47983 39176 ft 517 kts 53°
2026-05-05 06:31 23.75238 -153.41404 39177 ft 517 kts 53°
2026-05-05 06:31 23.79161 -153.34827 39176 ft 517 kts 53°
2026-05-05 06:32 23.83098 -153.28249 39185 ft 517 kts 53°
2026-05-05 06:32 23.87037 -153.21671 39178 ft 517 kts 53°
2026-05-05 06:33 23.90970 -153.15089 39179 ft 517 kts 53°
2026-05-05 06:33 23.94898 -153.08503 39176 ft 517 kts 53°
2026-05-05 06:34 23.98794 -153.01961 39190 ft 517 kts 53°
2026-05-05 06:34 24.02714 -152.95370 39200 ft 517 kts 53°
2026-05-05 06:35 24.06632 -152.88774 39182 ft 517 kts 53°
2026-05-05 06:35 24.10545 -152.82176 39173 ft 517 kts 53°
2026-05-05 06:36 24.14454 -152.75579 39195 ft 516 kts 53°
2026-05-05 06:36 24.18360 -152.68975 39189 ft 517 kts 53°
2026-05-05 06:37 24.22265 -152.62367 39186 ft 517 kts 53°
2026-05-05 06:37 24.26169 -152.55750 39198 ft 517 kts 53°
2026-05-05 06:38 24.30068 -152.49132 39189 ft 517 kts 53°
2026-05-05 06:38 24.33965 -152.42509 39193 ft 517 kts 53°
2026-05-05 06:39 24.37858 -152.35884 39194 ft 517 kts 54°
2026-05-05 06:39 24.41750 -152.29253 39195 ft 517 kts 54°
2026-05-05 06:40 24.45637 -152.22620 39207 ft 517 kts 54°
2026-05-05 06:40 24.49521 -152.15983 39193 ft 517 kts 54°
2026-05-05 06:41 24.53400 -152.09346 39198 ft 516 kts 54°
2026-05-05 06:41 24.57273 -152.02710 39196 ft 516 kts 54°
2026-05-05 06:42 24.61117 -151.96115 39196 ft 516 kts 54°
2026-05-05 06:42 24.64982 -151.89474 39216 ft 516 kts 54°
2026-05-05 06:43 24.68846 -151.82827 39209 ft 516 kts 54°
2026-05-05 06:43 24.72708 -151.76175 39201 ft 516 kts 54°
2026-05-05 06:44 24.76564 -151.69521 39201 ft 516 kts 54°
2026-05-05 06:44 24.80418 -151.62864 39201 ft 516 kts 54°
2026-05-05 06:45 24.84268 -151.56204 39203 ft 515 kts 54°
2026-05-05 06:45 24.88113 -151.49543 39210 ft 516 kts 54°
2026-05-05 06:46 24.91956 -151.42876 39208 ft 516 kts 54°
2026-05-05 06:46 24.95796 -151.36204 39203 ft 515 kts 54°
2026-05-05 06:47 24.99634 -151.29528 39202 ft 515 kts 54°
2026-05-05 06:47 25.03467 -151.22850 39209 ft 516 kts 54°
2026-05-05 06:48 25.07300 -151.16165 39216 ft 516 kts 54°
2026-05-05 06:48 25.11131 -151.09472 39208 ft 516 kts 54°
2026-05-05 06:49 25.14960 -151.02773 39207 ft 516 kts 54°
2026-05-05 06:49 25.18785 -150.96072 39210 ft 516 kts 54°
2026-05-05 06:50 25.22606 -150.89369 39206 ft 516 kts 54°
2026-05-05 06:50 25.26397 -150.82707 39212 ft 516 kts 54°
2026-05-05 06:51 25.30212 -150.75996 39212 ft 516 kts 54°
2026-05-05 06:51 25.34026 -150.69275 39213 ft 516 kts 54°
2026-05-05 06:52 25.37837 -150.62551 39212 ft 516 kts 54°
2026-05-05 06:52 25.41647 -150.55819 39212 ft 517 kts 54°
2026-05-05 06:53 25.45458 -150.49077 39237 ft 517 kts 54°
2026-05-05 06:53 25.49266 -150.42329 39208 ft 517 kts 54°
2026-05-05 06:54 25.53069 -150.35578 39215 ft 516 kts 54°
2026-05-05 06:54 25.56865 -150.28832 39215 ft 516 kts 54°
2026-05-05 06:55 25.60656 -150.22085 39215 ft 516 kts 54°
2026-05-05 06:55 25.64445 -150.15333 39231 ft 516 kts 54°
2026-05-05 06:56 25.68227 -150.08582 39223 ft 515 kts 54°
2026-05-05 06:56 25.72004 -150.01831 39219 ft 515 kts 55°
2026-05-05 06:57 25.75775 -149.95079 39223 ft 515 kts 55°
2026-05-05 06:57 25.79542 -149.88326 39219 ft 514 kts 54°
2026-05-05 06:58 25.83304 -149.81573 39231 ft 515 kts 55°
2026-05-05 06:58 25.87037 -149.74860 39225 ft 514 kts 55°
2026-05-05 06:59 25.90794 -149.68095 39221 ft 514 kts 55°
2026-05-05 06:59 25.94542 -149.61336 39223 ft 514 kts 55°
2026-05-05 07:00 25.98287 -149.54573 39223 ft 514 kts 55°
2026-05-05 07:00 26.02030 -149.47803 39240 ft 514 kts 55°
2026-05-05 07:01 26.05768 -149.41032 39234 ft 514 kts 55°
2026-05-05 07:01 26.09504 -149.34256 39225 ft 513 kts 55°
2026-05-05 07:02 26.13232 -149.27483 39227 ft 513 kts 55°
2026-05-05 07:02 26.16953 -149.20713 39229 ft 513 kts 55°
2026-05-05 07:03 26.20671 -149.13938 39245 ft 512 kts 56°
2026-05-05 07:03 26.24384 -149.07163 39237 ft 512 kts 56°
2026-05-05 07:04 26.28090 -149.00390 39224 ft 512 kts 55°
2026-05-05 07:04 26.31792 -148.93614 39228 ft 512 kts 56°
2026-05-05 07:05 26.35487 -148.86841 39234 ft 512 kts 56°
2026-05-05 07:05 26.39159 -148.80100 39250 ft 512 kts 56°
2026-05-05 07:06 26.42852 -148.73309 39235 ft 512 kts 56°
2026-05-05 07:06 26.46540 -148.66518 39238 ft 512 kts 56°
2026-05-05 07:07 26.50223 -148.59727 39227 ft 511 kts 56°
2026-05-05 07:07 26.53900 -148.52935 39227 ft 511 kts 56°
2026-05-05 07:08 26.57576 -148.46136 39250 ft 511 kts 56°
2026-05-05 07:08 26.61246 -148.39338 39236 ft 511 kts 56°
2026-05-05 07:09 26.64912 -148.32536 39237 ft 511 kts 56°
2026-05-05 07:09 26.68575 -148.25729 39236 ft 511 kts 56°
2026-05-05 07:10 26.72235 -148.18917 39230 ft 511 kts 56°
2026-05-05 07:10 26.75891 -148.12102 39249 ft 511 kts 56°
2026-05-05 07:11 26.79545 -148.05281 39235 ft 511 kts 56°
2026-05-05 07:11 26.83195 -147.98457 39240 ft 511 kts 56°
2026-05-05 07:12 26.86839 -147.91633 39245 ft 511 kts 56°
2026-05-05 07:12 26.90480 -147.84805 39241 ft 511 kts 56°
2026-05-05 07:13 26.94093 -147.78019 39257 ft 510 kts 56°
2026-05-05 07:13 26.97726 -147.71183 39246 ft 510 kts 56°
2026-05-05 07:14 27.01353 -147.64349 39235 ft 510 kts 56°
2026-05-05 07:14 27.04974 -147.57516 39241 ft 509 kts 56°
2026-05-05 07:15 27.08589 -147.50683 39248 ft 509 kts 56°
2026-05-05 07:15 27.12202 -147.43844 39248 ft 509 kts 56°
2026-05-05 07:16 27.15812 -147.36998 39241 ft 510 kts 56°
2026-05-05 07:16 27.19423 -147.30141 39247 ft 510 kts 56°
2026-05-05 07:17 27.23029 -147.23282 39251 ft 510 kts 56°
2026-05-05 07:17 27.26637 -147.16412 39274 ft 510 kts 57°
2026-05-05 07:18 27.30242 -147.09536 39249 ft 510 kts 57°
2026-05-05 07:18 27.33839 -147.02664 39251 ft 510 kts 57°
2026-05-05 07:19 27.36822 -146.96955 39253 ft 509 kts 57°
2026-05-05 07:19 27.40406 -146.90088 39257 ft 509 kts 57°
2026-05-05 07:20 27.43985 -146.83217 39260 ft 508 kts 57°
2026-05-05 07:20 27.47557 -146.76350 39258 ft 508 kts 57°
2026-05-05 07:21 27.51127 -146.69476 39258 ft 508 kts 57°
2026-05-05 07:21 27.54692 -146.62600 39259 ft 508 kts 57°
2026-05-05 07:22 27.58255 -146.55718 39258 ft 508 kts 57°
2026-05-05 07:22 27.61790 -146.48879 39274 ft 508 kts 57°
2026-05-05 07:23 27.65346 -146.41985 39260 ft 508 kts 57°
2026-05-05 07:23 27.68895 -146.35096 39265 ft 508 kts 57°
2026-05-05 07:24 27.72438 -146.28208 39260 ft 507 kts 57°
2026-05-05 07:24 27.75977 -146.21317 39263 ft 507 kts 57°
2026-05-05 07:25 27.79507 -146.14431 39267 ft 507 kts 57°
2026-05-05 07:25 27.83036 -146.07536 39265 ft 506 kts 57°
2026-05-05 07:26 27.86556 -146.00648 39269 ft 506 kts 57°
2026-05-05 07:26 27.90074 -145.93753 39269 ft 506 kts 57°
2026-05-05 07:27 27.93588 -145.86856 39286 ft 506 kts 57°
2026-05-05 07:27 27.97096 -145.79958 39273 ft 506 kts 57°
2026-05-05 07:28 28.00597 -145.73061 39270 ft 505 kts 57°
2026-05-05 07:28 28.04090 -145.66170 39274 ft 505 kts 57°
2026-05-05 07:29 28.07578 -145.59278 39272 ft 504 kts 57°
2026-05-05 07:29 28.11060 -145.52386 39281 ft 504 kts 58°
2026-05-05 07:30 28.14536 -145.45495 39278 ft 503 kts 58°
2026-05-05 07:30 28.19713 -145.35211 39281 ft 503 kts 58°
2026-05-05 07:31 28.23195 -145.28280 39280 ft 502 kts 58°
2026-05-05 07:31 28.26626 -145.21438 39284 ft 502 kts 58°
2026-05-05 07:32 28.30074 -145.14552 39282 ft 502 kts 58°
2026-05-05 07:32 28.33519 -145.07660 39283 ft 502 kts 58°
2026-05-05 07:33 28.36958 -145.00769 39278 ft 502 kts 58°
2026-05-05 07:33 28.40395 -144.93870 39293 ft 502 kts 58°
2026-05-05 07:34 28.43826 -144.86973 39274 ft 501 kts 58°
2026-05-05 07:34 28.47247 -144.80082 39277 ft 501 kts 58°
2026-05-05 07:35 28.50663 -144.73192 39280 ft 500 kts 58°
2026-05-05 07:35 28.54074 -144.66301 39300 ft 500 kts 58°
2026-05-05 07:36 28.57480 -144.59406 39282 ft 500 kts 58°
2026-05-05 07:36 28.60880 -144.52514 39285 ft 499 kts 58°
2026-05-05 07:37 28.64273 -144.45624 39278 ft 499 kts 58°
2026-05-05 07:37 28.67662 -144.38731 39289 ft 499 kts 58°
2026-05-05 07:38 28.71049 -144.31829 39285 ft 499 kts 58°
2026-05-05 07:38 28.74433 -144.24924 39290 ft 499 kts 58°
2026-05-05 07:39 28.77816 -144.18007 39294 ft 500 kts 58°
2026-05-05 07:39 28.81199 -144.11079 39292 ft 500 kts 58°
2026-05-05 07:40 28.84581 -144.04141 39308 ft 500 kts 59°
2026-05-05 07:40 28.87959 -143.97200 39282 ft 500 kts 59°
2026-05-05 07:41 28.91329 -143.90264 39290 ft 499 kts 59°
2026-05-05 07:41 28.94692 -143.83329 39287 ft 499 kts 59°
2026-05-05 07:42 28.98025 -143.76445 39294 ft 499 kts 59°
2026-05-05 07:42 29.01376 -143.69512 39294 ft 498 kts 59°
2026-05-05 07:43 29.04723 -143.62576 39292 ft 498 kts 59°
2026-05-05 07:43 29.08065 -143.55639 39294 ft 498 kts 59°
2026-05-05 07:44 29.11403 -143.48698 39296 ft 498 kts 59°
2026-05-05 07:44 29.14735 -143.41757 39297 ft 498 kts 59°
2026-05-05 07:45 29.18063 -143.34811 39291 ft 497 kts 59°
2026-05-05 07:45 29.21384 -143.27868 39291 ft 497 kts 59°
2026-05-05 07:46 29.24700 -143.20926 39294 ft 497 kts 59°
2026-05-05 07:46 29.28009 -143.13984 39298 ft 497 kts 59°
2026-05-05 07:47 29.31317 -143.07035 39300 ft 497 kts 59°
2026-05-05 07:47 29.34620 -143.00082 39292 ft 497 kts 59°
2026-05-05 07:48 29.37919 -142.93125 39296 ft 497 kts 59°
2026-05-05 07:48 29.41216 -142.86163 39310 ft 497 kts 59°
2026-05-05 07:49 29.44508 -142.79197 39301 ft 497 kts 59°
2026-05-05 07:49 29.47794 -142.72231 39297 ft 496 kts 59°
2026-05-05 07:50 29.51079 -142.65257 39299 ft 496 kts 59°
2026-05-05 07:50 29.54357 -142.58284 39309 ft 496 kts 59°
2026-05-05 07:51 29.57631 -142.51307 39301 ft 496 kts 59°
2026-05-05 07:51 29.60877 -142.44378 39299 ft 495 kts 59°
2026-05-05 07:52 29.64138 -142.37406 39302 ft 495 kts 59°
2026-05-05 07:52 29.67393 -142.30433 39309 ft 495 kts 59°
2026-05-05 07:53 29.70642 -142.23461 39304 ft 494 kts 59°
2026-05-05 07:53 29.73884 -142.16491 39300 ft 494 kts 59°
2026-05-05 07:54 29.77123 -142.09517 39301 ft 494 kts 59°
2026-05-05 07:54 29.80356 -142.02543 39300 ft 494 kts 59°
2026-05-05 07:55 29.83584 -141.95564 39304 ft 494 kts 59°
2026-05-05 07:55 29.86810 -141.88582 39301 ft 494 kts 59°
2026-05-05 07:56 29.90030 -141.81597 39302 ft 493 kts 59°
2026-05-05 07:56 29.93247 -141.74606 39299 ft 494 kts 59°
2026-05-05 07:57 29.96461 -141.67612 39305 ft 494 kts 59°
2026-05-05 07:57 29.99672 -141.60610 39300 ft 494 kts 59°
2026-05-05 07:58 30.02878 -141.53607 39301 ft 494 kts 59°
2026-05-05 07:58 30.06080 -141.46599 39302 ft 494 kts 59°
2026-05-05 07:59 30.09277 -141.39589 39304 ft 494 kts 59°
2026-05-05 07:59 30.12450 -141.32618 39304 ft 494 kts 59°
2026-05-05 08:00 30.15643 -141.25592 39306 ft 494 kts 59°
2026-05-05 08:00 30.18836 -141.18555 39308 ft 495 kts 59°
2026-05-05 08:01 30.22027 -141.11508 39310 ft 495 kts 59°
2026-05-05 08:01 30.25214 -141.04455 39303 ft 495 kts 59°
2026-05-05 08:02 30.28396 -140.97401 39304 ft 494 kts 59°
2026-05-05 08:02 30.31573 -140.90347 39317 ft 494 kts 59°
2026-05-05 08:03 30.34742 -140.83294 39305 ft 494 kts 59°
2026-05-05 08:03 30.37906 -140.76242 39305 ft 493 kts 59°
2026-05-05 08:04 30.41065 -140.69188 39306 ft 493 kts 59°
2026-05-05 08:04 30.44218 -140.62130 39308 ft 493 kts 59°
2026-05-05 08:05 30.47365 -140.55067 39310 ft 493 kts 59°
2026-05-05 08:05 30.50508 -140.47997 39306 ft 493 kts 59°
2026-05-05 08:06 30.53648 -140.40923 39309 ft 493 kts 59°
2026-05-05 08:06 30.56783 -140.33846 39317 ft 493 kts 59°
2026-05-05 08:07 30.59918 -140.26758 39307 ft 494 kts 59°
2026-05-05 08:07 30.63026 -140.19716 39307 ft 493 kts 59°
2026-05-05 08:08 30.66153 -140.12618 39304 ft 494 kts 59°
2026-05-05 08:08 30.69268 -140.05532 39315 ft 493 kts 59°
2026-05-05 08:09 30.71887 -139.99565 39307 ft 493 kts 59°
2026-05-05 08:09 30.75001 -139.92460 39303 ft 493 kts 59°
2026-05-05 08:10 30.78088 -139.85402 39309 ft 493 kts 59°
2026-05-05 08:10 30.81193 -139.78290 39314 ft 493 kts 58°
2026-05-05 08:11 30.84294 -139.71173 39297 ft 493 kts 59°
2026-05-05 08:11 30.87392 -139.64049 39313 ft 493 kts 59°
2026-05-05 08:12 30.90486 -139.56922 39310 ft 493 kts 59°
2026-05-05 08:12 30.93578 -139.49784 39306 ft 494 kts 59°
2026-05-05 08:13 30.96670 -139.42635 39308 ft 494 kts 59°
2026-05-05 08:13 30.99756 -139.35484 39306 ft 494 kts 59°
2026-05-05 08:14 31.02840 -139.28322 39310 ft 494 kts 59°
2026-05-05 08:14 31.05924 -139.21151 39307 ft 495 kts 59°
2026-05-05 08:15 31.09004 -139.13971 39301 ft 495 kts 59°
2026-05-05 08:15 31.12081 -139.06788 39306 ft 495 kts 59°
2026-05-05 08:16 31.15159 -138.99586 39313 ft 496 kts 59°
2026-05-05 08:16 31.18232 -138.92382 39302 ft 496 kts 59°
2026-05-05 08:17 31.21301 -138.85173 39302 ft 496 kts 59°
2026-05-05 08:17 31.24365 -138.77962 39301 ft 495 kts 59°
2026-05-05 08:18 31.27403 -138.70797 39301 ft 495 kts 59°
2026-05-05 08:18 31.30456 -138.63585 39301 ft 495 kts 59°
2026-05-05 08:19 31.33508 -138.56360 39300 ft 495 kts 59°
2026-05-05 08:19 31.36557 -138.49128 39313 ft 496 kts 59°
2026-05-05 08:20 31.39605 -138.41884 39302 ft 496 kts 59°
2026-05-05 08:20 31.42652 -138.34630 39303 ft 497 kts 59°
2026-05-05 08:21 31.45697 -138.27363 39298 ft 497 kts 59°
2026-05-05 08:21 31.48739 -138.20090 39305 ft 497 kts 59°
2026-05-05 08:22 31.51777 -138.12811 39296 ft 497 kts 59°
2026-05-05 08:22 31.54812 -138.05525 39300 ft 497 kts 59°
2026-05-05 08:23 31.57842 -137.98236 39309 ft 498 kts 59°
2026-05-05 08:23 31.60871 -137.90936 39288 ft 498 kts 59°
2026-05-05 08:24 31.63899 -137.83625 39301 ft 498 kts 59°
2026-05-05 08:24 31.66923 -137.76306 39283 ft 499 kts 59°
2026-05-05 08:25 31.69948 -137.68971 39286 ft 499 kts 59°
2026-05-05 08:25 31.72968 -137.61630 39292 ft 499 kts 59°
2026-05-05 08:26 31.75986 -137.54283 39290 ft 500 kts 59°
2026-05-05 08:26 31.79003 -137.46921 39293 ft 500 kts 59°
2026-05-05 08:27 31.81997 -137.39603 39290 ft 500 kts 59°
2026-05-05 08:27 31.85008 -137.32225 39287 ft 501 kts 59°
2026-05-05 08:28 31.88017 -137.24838 39296 ft 501 kts 59°
2026-05-05 08:28 31.91023 -137.17442 39294 ft 501 kts 59°
2026-05-05 08:29 31.94025 -137.10041 39284 ft 501 kts 59°
2026-05-05 08:30 31.98522 -136.98925 39295 ft 501 kts 59°
2026-05-05 08:30 32.01513 -136.91513 39282 ft 501 kts 59°
2026-05-05 08:31 32.04500 -136.84096 39286 ft 501 kts 59°
2026-05-05 08:31 32.07481 -136.76678 39300 ft 501 kts 59°
2026-05-05 08:32 32.10458 -136.69253 39289 ft 501 kts 59°
2026-05-05 08:32 32.13430 -136.61825 39281 ft 501 kts 59°
2026-05-05 08:33 32.16398 -136.54394 39275 ft 500 kts 59°
2026-05-05 08:33 32.19359 -136.46964 39287 ft 500 kts 59°
2026-05-05 08:34 32.22313 -136.39532 39279 ft 500 kts 60°
2026-05-05 08:34 32.25243 -136.32148 39275 ft 500 kts 60°
2026-05-05 08:35 32.28188 -136.24709 39275 ft 500 kts 60°
2026-05-05 08:35 32.31128 -136.17269 39274 ft 499 kts 60°
2026-05-05 08:36 32.34062 -136.09826 39272 ft 500 kts 60°
2026-05-05 08:36 32.36995 -136.02373 39283 ft 500 kts 60°
2026-05-05 08:37 32.39923 -135.94913 39271 ft 500 kts 60°
2026-05-05 08:37 32.42847 -135.87449 39270 ft 500 kts 60°
2026-05-05 08:38 32.45767 -135.79979 39279 ft 500 kts 60°
2026-05-05 08:38 32.48681 -135.72508 39264 ft 500 kts 60°
2026-05-05 08:39 32.51590 -135.65033 39265 ft 500 kts 60°
2026-05-05 08:39 32.54495 -135.57552 39283 ft 499 kts 60°
2026-05-05 08:40 32.57394 -135.50070 39265 ft 500 kts 60°
2026-05-05 08:40 32.60270 -135.42633 39261 ft 500 kts 60°
2026-05-05 08:41 32.63161 -135.35140 39274 ft 500 kts 60°
2026-05-05 08:41 32.66049 -135.27638 39260 ft 500 kts 60°
2026-05-05 08:42 32.68934 -135.20128 39255 ft 500 kts 60°
2026-05-05 08:42 32.71817 -135.12606 39258 ft 501 kts 60°
2026-05-05 08:43 32.74697 -135.05076 39259 ft 501 kts 60°
2026-05-05 08:43 32.77574 -134.97537 39257 ft 501 kts 60°
2026-05-05 08:44 32.80447 -134.89992 39249 ft 501 kts 60°
2026-05-05 08:44 32.83315 -134.82441 39247 ft 501 kts 60°
2026-05-05 08:45 32.86178 -134.74889 39249 ft 501 kts 60°
2026-05-05 08:45 32.89036 -134.67332 39245 ft 501 kts 60°
2026-05-05 08:46 32.91890 -134.59770 39256 ft 501 kts 60°
2026-05-05 08:46 32.94738 -134.52205 39248 ft 501 kts 60°
2026-05-05 08:47 32.97581 -134.44637 39234 ft 501 kts 60°
2026-05-05 08:47 33.00418 -134.37068 39245 ft 500 kts 60°
2026-05-05 08:48 33.03247 -134.29503 39239 ft 499 kts 60°
2026-05-05 08:48 33.06068 -134.21945 39248 ft 499 kts 60°
2026-05-05 08:49 33.08881 -134.14390 39238 ft 498 kts 60°
2026-05-05 08:49 33.11684 -134.06842 39235 ft 497 kts 60°
2026-05-05 08:50 33.14479 -133.99302 39242 ft 497 kts 61°
2026-05-05 08:50 33.17267 -133.91761 39233 ft 496 kts 61°
2026-05-05 08:51 33.20049 -133.84222 39228 ft 496 kts 61°
2026-05-05 08:51 33.22826 -133.76678 39242 ft 496 kts 61°
2026-05-05 08:52 33.25580 -133.69179 39236 ft 496 kts 61°
2026-05-05 08:52 33.28349 -133.61624 39249 ft 496 kts 61°
2026-05-05 08:53 33.31116 -133.54061 39220 ft 497 kts 61°
2026-05-05 08:53 33.33881 -133.46491 39223 ft 497 kts 61°
2026-05-05 08:54 33.36644 -133.38905 39232 ft 498 kts 61°
2026-05-05 08:54 33.39404 -133.31309 39222 ft 498 kts 61°
2026-05-05 08:55 33.42160 -133.23705 39217 ft 498 kts 61°
2026-05-05 08:55 33.44911 -133.16098 39223 ft 498 kts 61°
2026-05-05 08:56 33.47657 -133.08486 39210 ft 498 kts 61°
2026-05-05 08:56 33.50395 -133.00880 39232 ft 497 kts 60°
2026-05-05 08:57 33.53126 -132.93273 39212 ft 496 kts 60°
2026-05-05 08:57 33.55849 -132.85675 39211 ft 496 kts 61°
2026-05-05 08:58 33.58562 -132.78084 39211 ft 495 kts 61°
2026-05-05 08:58 33.60813 -132.71776 39216 ft 495 kts 61°
2026-05-05 08:59 33.63514 -132.64186 39209 ft 494 kts 61°
2026-05-05 08:59 33.66208 -132.56597 39217 ft 494 kts 60°
2026-05-05 09:00 33.68900 -132.49001 39207 ft 494 kts 61°
2026-05-05 09:00 33.71585 -132.41403 39207 ft 494 kts 60°
2026-05-05 09:01 33.74266 -132.33801 39211 ft 494 kts 60°
2026-05-05 09:01 33.76944 -132.26189 39197 ft 494 kts 60°
2026-05-05 09:02 33.79617 -132.18575 39218 ft 494 kts 60°
2026-05-05 09:02 33.82284 -132.10956 39196 ft 494 kts 60°
2026-05-05 09:03 33.84946 -132.03334 39189 ft 494 kts 60°
2026-05-05 09:03 33.87602 -131.95712 39206 ft 494 kts 61°
2026-05-05 09:04 33.90253 -131.88087 39192 ft 494 kts 61°
2026-05-05 09:04 33.92896 -131.80460 39187 ft 493 kts 61°
2026-05-05 09:05 33.95533 -131.72838 39185 ft 493 kts 61°
2026-05-05 09:05 33.98160 -131.65225 39183 ft 492 kts 61°
2026-05-05 09:06 34.00778 -131.57621 39180 ft 491 kts 61°
2026-05-05 09:06 34.03388 -131.50026 39190 ft 490 kts 62°
2026-05-05 09:07 34.05989 -131.42432 39188 ft 490 kts 62°
2026-05-05 09:07 34.08582 -131.34847 39179 ft 489 kts 62°
2026-05-05 09:08 34.11168 -131.27264 39191 ft 488 kts 62°
2026-05-05 09:08 34.13729 -131.19734 39178 ft 488 kts 62°
2026-05-05 09:09 34.16301 -131.12156 39191 ft 487 kts 62°
2026-05-05 09:09 34.18882 -131.04534 39182 ft 487 kts 62°
2026-05-05 09:10 34.21441 -130.96955 39172 ft 487 kts 62°
2026-05-05 09:10 34.23992 -130.89382 39192 ft 486 kts 63°
2026-05-05 09:11 34.26537 -130.81810 39162 ft 486 kts 63°
2026-05-05 09:11 34.29074 -130.74240 39177 ft 485 kts 63°
2026-05-05 09:12 34.31586 -130.66727 39163 ft 485 kts 63°
2026-05-05 09:12 34.34114 -130.59153 39170 ft 486 kts 63°
2026-05-05 09:13 34.36642 -130.51561 39168 ft 487 kts 63°
2026-05-05 09:13 34.39170 -130.43947 39165 ft 488 kts 63°
2026-05-05 09:14 34.41695 -130.36319 39153 ft 488 kts 63°
2026-05-05 09:14 34.44213 -130.28697 39157 ft 487 kts 63°
2026-05-05 09:15 34.46725 -130.21072 39174 ft 487 kts 63°
2026-05-05 09:15 34.49230 -130.13451 39163 ft 487 kts 63°
2026-05-05 09:16 34.51728 -130.05831 39149 ft 486 kts 63°
2026-05-05 09:16 34.54220 -129.98216 39160 ft 486 kts 64°
2026-05-05 09:17 34.56704 -129.90602 39155 ft 485 kts 64°
2026-05-05 09:17 34.59181 -129.82987 39150 ft 485 kts 64°
2026-05-05 09:18 34.61650 -129.75381 39151 ft 484 kts 64°
2026-05-05 09:18 34.64112 -129.67779 39146 ft 484 kts 64°
2026-05-05 09:19 34.66569 -129.60172 39143 ft 483 kts 64°
2026-05-05 09:19 34.69018 -129.52571 39149 ft 483 kts 64°
2026-05-05 09:20 34.71461 -129.44972 39137 ft 483 kts 64°
2026-05-05 09:20 34.73896 -129.37376 39139 ft 482 kts 64°
2026-05-05 09:21 34.76324 -129.29781 39148 ft 481 kts 65°
2026-05-05 09:21 34.78743 -129.22197 39137 ft 481 kts 65°
2026-05-05 09:22 34.81153 -129.14623 39134 ft 480 kts 65°
2026-05-05 09:22 34.83538 -129.07106 39138 ft 479 kts 65°
2026-05-05 09:23 34.85928 -128.99556 39131 ft 477 kts 65°
2026-05-05 09:23 34.88308 -128.92017 39129 ft 476 kts 65°
2026-05-05 09:24 34.90679 -128.84490 39140 ft 476 kts 65°
2026-05-05 09:24 34.93041 -128.76969 39131 ft 475 kts 65°
2026-05-05 09:25 34.95397 -128.69452 39125 ft 474 kts 65°
2026-05-05 09:25 34.97746 -128.61937 39127 ft 474 kts 65°
2026-05-05 09:26 35.00087 -128.54428 39122 ft 474 kts 65°
2026-05-05 09:26 35.02425 -128.46910 39125 ft 474 kts 65°
2026-05-05 09:27 35.04757 -128.39392 39124 ft 474 kts 65°
2026-05-05 09:27 35.07084 -128.31869 39115 ft 474 kts 65°
2026-05-05 09:28 35.09408 -128.24340 39122 ft 474 kts 65°
2026-05-05 09:28 35.11728 -128.16800 39128 ft 474 kts 66°
2026-05-05 09:29 35.14044 -128.09256 39113 ft 474 kts 66°
2026-05-05 09:29 35.16357 -128.01704 39116 ft 474 kts 66°
2026-05-05 09:30 35.18664 -127.94151 39121 ft 474 kts 66°
2026-05-05 09:30 35.20950 -127.86644 39113 ft 474 kts 66°
2026-05-05 09:31 35.23246 -127.79088 39108 ft 474 kts 66°
2026-05-05 09:31 35.25535 -127.71534 39126 ft 473 kts 66°
2026-05-05 09:32 35.27817 -127.63982 39112 ft 473 kts 66°
2026-05-05 09:32 35.30092 -127.56435 39100 ft 473 kts 66°
2026-05-05 09:33 35.32364 -127.48879 39100 ft 473 kts 66°
2026-05-05 09:33 35.34633 -127.41317 39108 ft 473 kts 67°
2026-05-05 09:34 35.36897 -127.33744 39101 ft 473 kts 67°
2026-05-05 09:34 35.39157 -127.26164 39105 ft 473 kts 67°
2026-05-05 09:35 35.41413 -127.18584 39107 ft 473 kts 67°
2026-05-05 09:35 35.44788 -127.07199 39097 ft 473 kts 67°
2026-05-05 09:36 35.47032 -126.99607 39095 ft 473 kts 67°
2026-05-05 09:36 35.49269 -126.92017 39098 ft 473 kts 67°
2026-05-05 09:37 35.51500 -126.84426 39094 ft 473 kts 68°
2026-05-05 09:37 35.53724 -126.76837 39095 ft 472 kts 68°
2026-05-05 09:38 35.55928 -126.69299 39101 ft 472 kts 68°
2026-05-05 09:38 35.58153 -126.61667 39088 ft 471 kts 68°
2026-05-05 09:39 35.60342 -126.54141 39087 ft 470 kts 68°
2026-05-05 09:39 35.62536 -126.46574 39096 ft 470 kts 68°
2026-05-05 09:40 35.64723 -126.39013 39081 ft 469 kts 68°
2026-05-05 09:40 35.66903 -126.31452 39085 ft 469 kts 68°
2026-05-05 09:41 35.69077 -126.23895 39095 ft 469 kts 68°
2026-05-05 09:41 35.71245 -126.16336 39087 ft 468 kts 68°
2026-05-05 09:42 35.73428 -126.08793 39086 ft 467 kts 66°
2026-05-05 09:42 35.75914 -126.01422 39083 ft 466 kts 65°
2026-05-05 09:43 35.78469 -125.94093 39081 ft 466 kts 65°
2026-05-05 09:43 35.81010 -125.86749 39082 ft 466 kts 65°
2026-05-05 09:44 35.83529 -125.79391 39085 ft 466 kts 65°
2026-05-05 09:44 35.86039 -125.72023 39094 ft 466 kts 65°
2026-05-05 09:45 35.88544 -125.64649 39079 ft 466 kts 65°
2026-05-05 09:45 35.91045 -125.57271 39074 ft 466 kts 65°
2026-05-05 09:46 35.93542 -125.49890 39088 ft 466 kts 65°
2026-05-05 09:46 35.95610 -125.43762 39078 ft 465 kts 65°
2026-05-05 09:47 35.98492 -125.35203 39069 ft 464 kts 65°
2026-05-05 09:47 36.00962 -125.27849 39068 ft 463 kts 65°
2026-05-05 09:48 36.03022 -125.21699 39079 ft 462 kts 65°
2026-05-05 09:48 36.05472 -125.14370 39067 ft 461 kts 65°
2026-05-05 09:49 36.07914 -125.07049 39065 ft 460 kts 65°
2026-05-05 09:49 36.10329 -124.99788 39065 ft 459 kts 65°
2026-05-05 09:50 36.12755 -124.92476 39065 ft 460 kts 65°
2026-05-05 09:50 36.15177 -124.85160 39065 ft 460 kts 65°
2026-05-05 09:51 36.17597 -124.77834 39063 ft 460 kts 65°
2026-05-05 09:51 36.19964 -124.70475 39068 ft 461 kts 67°
2026-05-05 09:52 36.22251 -124.63049 39063 ft 462 kts 67°
2026-05-05 09:52 36.24534 -124.55603 39063 ft 463 kts 67°
2026-05-05 09:53 36.26828 -124.48140 39066 ft 464 kts 67°
2026-05-05 09:53 36.29127 -124.40668 39066 ft 464 kts 67°
2026-05-05 09:54 36.31425 -124.33182 39062 ft 465 kts 67°
2026-05-05 09:54 36.33718 -124.25694 39062 ft 464 kts 67°
2026-05-05 09:55 36.36004 -124.18204 39071 ft 464 kts 68°
2026-05-05 09:55 36.38287 -124.10707 39063 ft 464 kts 68°
2026-05-05 09:56 36.40563 -124.03213 39062 ft 464 kts 68°
2026-05-05 09:56 36.42834 -123.95716 39063 ft 464 kts 68°
2026-05-05 09:57 36.45098 -123.88220 39064 ft 464 kts 68°
2026-05-05 09:57 36.47357 -123.80722 39062 ft 463 kts 68°
2026-05-05 09:58 36.49611 -123.73223 39060 ft 463 kts 68°
2026-05-05 09:58 36.51845 -123.65768 39064 ft 463 kts 68°
2026-05-05 09:59 36.54089 -123.58263 39059 ft 463 kts 68°
2026-05-05 09:59 36.56326 -123.50757 39060 ft 463 kts 68°
2026-05-05 10:00 36.58559 -123.43246 39060 ft 463 kts 68°
2026-05-05 10:00 36.60787 -123.35732 39057 ft 463 kts 68°
2026-05-05 10:01 36.63009 -123.28215 39055 ft 463 kts 68°
2026-05-05 10:01 36.65228 -123.20693 39052 ft 463 kts 68°
2026-05-05 10:02 36.67442 -123.13164 39058 ft 463 kts 69°
2026-05-05 10:02 36.69651 -123.05633 39054 ft 463 kts 69°
2026-05-05 10:03 36.71855 -122.98098 39050 ft 463 kts 69°
2026-05-05 10:03 36.74054 -122.90557 39047 ft 463 kts 69°
2026-05-05 10:04 36.76249 -122.83014 39043 ft 463 kts 69°
2026-05-05 10:04 36.78423 -122.75518 39045 ft 463 kts 69°
2026-05-05 10:05 36.80609 -122.67965 39047 ft 463 kts 69°
2026-05-05 10:05 36.82790 -122.60403 39055 ft 463 kts 69°
2026-05-05 10:06 36.84965 -122.52844 39048 ft 463 kts 69°
2026-05-05 10:06 36.87134 -122.45284 39050 ft 462 kts 69°
2026-05-05 10:07 36.89296 -122.37728 39048 ft 462 kts 69°
2026-05-05 10:07 36.91454 -122.30165 39049 ft 462 kts 69°
2026-05-05 10:08 36.93605 -122.22605 39051 ft 462 kts 69°
2026-05-05 10:08 36.95753 -122.15035 39058 ft 462 kts 69°
2026-05-05 10:09 36.97895 -122.07464 39057 ft 462 kts 69°
2026-05-05 10:09 37.00036 -121.99879 39058 ft 463 kts 69°
2026-05-05 10:10 37.02021 -121.92214 39062 ft 464 kts 72°
2026-05-05 10:10 37.03892 -121.84482 39060 ft 465 kts 72°
2026-05-05 10:11 37.05773 -121.76742 39056 ft 465 kts 72°
2026-05-05 10:11 37.07676 -121.68987 39049 ft 466 kts 72°
2026-05-05 10:12 37.09584 -121.61218 39058 ft 467 kts 72°
2026-05-05 10:12 37.11491 -121.53439 39062 ft 467 kts 72°
2026-05-05 10:13 37.13393 -121.45647 39062 ft 468 kts 72°
2026-05-05 10:13 37.15292 -121.37841 39055 ft 468 kts 72°
2026-05-05 10:14 37.17186 -121.30028 39054 ft 469 kts 72°
2026-05-05 10:14 37.19063 -121.22261 39048 ft 469 kts 72°
2026-05-05 10:15 37.20950 -121.14430 39042 ft 469 kts 72°
2026-05-05 10:15 37.22834 -121.06584 39037 ft 470 kts 72°
2026-05-05 10:16 37.24714 -120.98731 39039 ft 470 kts 72°
2026-05-05 10:16 37.26590 -120.90867 39025 ft 471 kts 72°
2026-05-05 10:17 37.28465 -120.82984 39042 ft 472 kts 72°
2026-05-05 10:17 37.30343 -120.75058 39034 ft 475 kts 72°
2026-05-05 10:18 37.32227 -120.67086 39030 ft 477 kts 72°
2026-05-05 10:18 37.34139 -120.59090 39027 ft 479 kts 72°
2026-05-05 10:19 37.36129 -120.51102 39022 ft 479 kts 71°
2026-05-05 10:19 37.38124 -120.43112 39022 ft 479 kts 72°
2026-05-05 10:20 37.40101 -120.35123 39026 ft 478 kts 71°
2026-05-05 10:20 37.42066 -120.27128 39019 ft 478 kts 72°
2026-05-05 10:21 37.44020 -120.19143 39017 ft 478 kts 72°
2026-05-05 10:21 37.45969 -120.11155 39010 ft 477 kts 72°
2026-05-05 10:22 37.47917 -120.03153 39007 ft 478 kts 72°
2026-05-05 10:22 37.49847 -119.95190 39008 ft 479 kts 72°
2026-05-05 10:23 37.51787 -119.87159 39006 ft 480 kts 72°
2026-05-05 10:23 37.53728 -119.79104 39000 ft 481 kts 72°
2026-05-05 10:24 37.55666 -119.71031 38997 ft 482 kts 72°
2026-05-05 10:24 37.57603 -119.62935 38998 ft 483 kts 72°
2026-05-05 10:25 37.59537 -119.54823 38989 ft 483 kts 72°
2026-05-05 10:25 37.61466 -119.46706 38977 ft 483 kts 73°
2026-05-05 10:26 37.63391 -119.38579 38973 ft 484 kts 73°
2026-05-05 10:26 37.65311 -119.30444 38959 ft 484 kts 73°
2026-05-05 10:27 37.67225 -119.22307 38940 ft 484 kts 73°
2026-05-05 10:27 37.69134 -119.14161 38946 ft 484 kts 73°
2026-05-05 10:28 37.71042 -119.05997 38961 ft 485 kts 73°
2026-05-05 10:28 37.72944 -118.97823 38965 ft 485 kts 73°
2026-05-05 10:29 37.74844 -118.89636 38966 ft 486 kts 73°
2026-05-05 10:29 37.76741 -118.81428 38968 ft 487 kts 73°
2026-05-05 10:30 37.78637 -118.73197 38950 ft 488 kts 73°
2026-05-05 10:30 37.80529 -118.64957 38929 ft 489 kts 74°
2026-05-05 10:31 37.82406 -118.56749 38914 ft 489 kts 74°
2026-05-05 10:31 37.84292 -118.48475 38888 ft 490 kts 74°
2026-05-05 10:32 37.86174 -118.40184 38885 ft 490 kts 74°
2026-05-05 10:32 37.88051 -118.31889 38878 ft 490 kts 74°
2026-05-05 10:33 37.89924 -118.23584 38890 ft 491 kts 74°
2026-05-05 10:33 37.91791 -118.15271 38885 ft 491 kts 74°
2026-05-05 10:34 37.93654 -118.06951 38905 ft 491 kts 74°
2026-05-05 10:34 37.95510 -117.98626 38884 ft 491 kts 74°
2026-05-05 10:35 37.97358 -117.90310 38880 ft 490 kts 74°
2026-05-05 10:35 37.99199 -117.81996 38882 ft 490 kts 74°
2026-05-05 10:36 38.01048 -117.73696 38885 ft 489 kts 73°
2026-05-05 10:36 38.02987 -117.65439 38888 ft 488 kts 73°
2026-05-05 10:37 38.04933 -117.57188 38890 ft 488 kts 73°
2026-05-05 10:37 38.06534 -117.50327 38894 ft 488 kts 73°
2026-05-05 10:38 38.08759 -117.40725 38886 ft 488 kts 73°
2026-05-05 10:38 38.10672 -117.32440 38899 ft 489 kts 73°
2026-05-05 10:39 38.12172 -117.25458 38896 ft 490 kts 79°
2026-05-05 10:39 38.13316 -117.16927 38952 ft 491 kts 81°
2026-05-05 10:40 38.14372 -117.08353 38951 ft 492 kts 81°
2026-05-05 10:40 38.15441 -116.99823 38945 ft 492 kts 81°
2026-05-05 10:41 38.16537 -116.91231 38934 ft 493 kts 81°
2026-05-05 10:41 38.17635 -116.82632 38912 ft 493 kts 81°
2026-05-05 10:42 38.19270 -116.69723 38882 ft 493 kts 81°
2026-05-05 10:43 38.20351 -116.61112 38882 ft 493 kts 81°
2026-05-05 10:43 38.21426 -116.52495 38865 ft 494 kts 82°
2026-05-05 10:44 38.22497 -116.43855 38876 ft 495 kts 82°
2026-05-05 10:44 38.23565 -116.35186 38864 ft 497 kts 82°
2026-05-05 10:45 38.24629 -116.26497 38869 ft 498 kts 82°
2026-05-05 10:45 38.25688 -116.17787 38860 ft 499 kts 82°
2026-05-05 10:46 38.26744 -116.09055 38859 ft 500 kts 82°
2026-05-05 10:46 38.27794 -116.00314 38851 ft 500 kts 82°
2026-05-05 10:47 38.28839 -115.91562 38840 ft 500 kts 82°
2026-05-05 10:47 38.29877 -115.82804 38841 ft 500 kts 83°
2026-05-05 10:48 38.30909 -115.74042 38842 ft 501 kts 83°
2026-05-05 10:48 38.31934 -115.65276 38841 ft 501 kts 83°
2026-05-05 10:49 38.32955 -115.56498 38830 ft 502 kts 83°
2026-05-05 10:49 38.33971 -115.47703 38829 ft 502 kts 83°
2026-05-05 10:50 38.34980 -115.38895 38833 ft 503 kts 83°
2026-05-05 10:50 38.35985 -115.30067 38816 ft 504 kts 83°
2026-05-05 10:51 38.36985 -115.21228 38824 ft 505 kts 83°
2026-05-05 10:51 38.37980 -115.12365 38828 ft 506 kts 83°
2026-05-05 10:52 38.38971 -115.03481 38830 ft 506 kts 83°
2026-05-05 10:52 38.39957 -114.94584 38826 ft 507 kts 84°
2026-05-05 10:53 38.40937 -114.85667 38832 ft 508 kts 84°
2026-05-05 10:53 38.41905 -114.76799 38834 ft 509 kts 84°
2026-05-05 10:54 38.42874 -114.67851 38825 ft 510 kts 84°
2026-05-05 10:54 38.43841 -114.58869 38835 ft 512 kts 84°
2026-05-05 10:55 38.44804 -114.49860 38844 ft 513 kts 84°
2026-05-05 10:55 38.45761 -114.40830 38843 ft 514 kts 84°
2026-05-05 10:56 38.46713 -114.31782 38838 ft 514 kts 85°
2026-05-05 10:56 38.47659 -114.22728 38837 ft 515 kts 85°
2026-05-05 10:57 38.48598 -114.13662 38842 ft 515 kts 85°
2026-05-05 10:57 38.49529 -114.04586 38822 ft 516 kts 86°
2026-05-05 10:58 38.49754 -113.95490 38834 ft 511 kts 98°
2026-05-05 10:58 38.49030 -113.86496 38832 ft 510 kts 100°
2026-05-05 10:59 38.48257 -113.77490 38828 ft 511 kts 100°
2026-05-05 10:59 38.47512 -113.68462 38820 ft 512 kts 100°
2026-05-05 11:00 38.46784 -113.59413 38831 ft 513 kts 100°
2026-05-05 11:00 38.46052 -113.50341 38824 ft 515 kts 100°
2026-05-05 11:01 38.45311 -113.41251 38828 ft 516 kts 101°
2026-05-05 11:01 38.44558 -113.32127 38873 ft 518 kts 101°
2026-05-05 11:02 38.43798 -113.23024 38894 ft 521 kts 101°
2026-05-05 11:02 38.43024 -113.13832 38918 ft 521 kts 101°
2026-05-05 11:03 38.42243 -113.04632 38920 ft 522 kts 102°
2026-05-05 11:03 38.41452 -112.95422 38936 ft 523 kts 102°
2026-05-05 11:04 38.40652 -112.86195 38913 ft 524 kts 102°
2026-05-05 11:04 38.39846 -112.76965 38874 ft 524 kts 102°
2026-05-05 11:05 38.39032 -112.67726 38863 ft 525 kts 102°
2026-05-05 11:05 38.38207 -112.58468 38849 ft 526 kts 102°
2026-05-05 11:06 38.37375 -112.49201 38843 ft 527 kts 102°
2026-05-05 11:06 38.36532 -112.39908 38820 ft 528 kts 103°
2026-05-05 11:07 38.35678 -112.30599 38834 ft 529 kts 103°
2026-05-05 11:07 38.34818 -112.21291 38823 ft 529 kts 103°
2026-05-05 11:08 38.33956 -112.11976 38826 ft 530 kts 103°
2026-05-05 11:08 38.33078 -112.02637 38813 ft 532 kts 104°
2026-05-05 11:09 38.32196 -111.93332 38830 ft 533 kts 104°
2026-05-05 11:09 38.31299 -111.83946 38821 ft 535 kts 104°
2026-05-05 11:10 38.30395 -111.74542 38813 ft 535 kts 104°
2026-05-05 11:10 38.29479 -111.65132 38825 ft 536 kts 104°
2026-05-05 11:11 38.28556 -111.55708 38816 ft 537 kts 104°
2026-05-05 11:11 38.27627 -111.46286 38806 ft 536 kts 104°
2026-05-05 11:12 38.26690 -111.36878 38802 ft 536 kts 104°
2026-05-05 11:12 38.25743 -111.27467 38792 ft 536 kts 104°
2026-05-05 11:13 38.24792 -111.18073 38795 ft 535 kts 105°
2026-05-05 11:13 38.23834 -111.08689 38763 ft 535 kts 104°
2026-05-05 11:14 38.22865 -110.99306 38763 ft 535 kts 105°
2026-05-05 11:14 38.21893 -110.89939 38822 ft 535 kts 105°
2026-05-05 11:15 38.20917 -110.80564 38823 ft 535 kts 105°
2026-05-05 11:15 38.19927 -110.71185 38829 ft 536 kts 105°
2026-05-05 11:16 38.18928 -110.61787 38757 ft 537 kts 105°
2026-05-05 11:16 38.17919 -110.52371 38750 ft 538 kts 105°
2026-05-05 11:17 38.16901 -110.42934 38751 ft 540 kts 105°
2026-05-05 11:17 38.15870 -110.33457 38749 ft 542 kts 105°
2026-05-05 11:18 38.14831 -110.23971 38764 ft 542 kts 105°
2026-05-05 11:18 38.13788 -110.14476 38746 ft 543 kts 105°
2026-05-05 11:19 38.12748 -110.05045 38761 ft 543 kts 105°
2026-05-05 11:19 38.11706 -109.95533 38755 ft 545 kts 105°
2026-05-05 11:20 38.10642 -109.86008 38785 ft 545 kts 105°
2026-05-05 11:20 38.09590 -109.76467 38743 ft 547 kts 105°
2026-05-05 11:21 38.08536 -109.66906 38768 ft 548 kts 105°
2026-05-05 11:21 38.07484 -109.57330 38780 ft 548 kts 105°
2026-05-05 11:22 38.06427 -109.47746 38777 ft 549 kts 105°
2026-05-05 11:22 38.05372 -109.38152 38788 ft 549 kts 105°
2026-05-05 11:23 38.04313 -109.28540 38795 ft 550 kts 105°
2026-05-05 11:23 38.03251 -109.18926 38802 ft 550 kts 105°
2026-05-05 11:24 38.02187 -109.09306 38771 ft 551 kts 105°
2026-05-05 11:24 38.01123 -108.99684 38774 ft 551 kts 105°
2026-05-05 11:25 38.00063 -108.90073 38783 ft 550 kts 105°
2026-05-05 11:25 37.99007 -108.80469 38798 ft 550 kts 105°
2026-05-05 11:26 37.97952 -108.70863 38798 ft 551 kts 105°
2026-05-05 11:26 37.96893 -108.61229 38811 ft 553 kts 105°
2026-05-05 11:27 37.96007 -108.53197 38817 ft 554 kts 105°
2026-05-05 11:27 37.94940 -108.43524 38837 ft 554 kts 105°
2026-05-05 11:28 37.93870 -108.33834 38859 ft 556 kts 104°
2026-05-05 11:28 37.92798 -108.24118 38915 ft 558 kts 104°
2026-05-05 11:29 37.91724 -108.14382 38975 ft 559 kts 105°
2026-05-05 11:29 37.90651 -108.04630 39013 ft 559 kts 105°
2026-05-05 11:30 37.89576 -107.94882 39067 ft 559 kts 105°
2026-05-05 11:30 37.88503 -107.85126 39074 ft 560 kts 104°
2026-05-05 11:30 37.87966 -107.80238 38865 ft 561 kts 104°
2026-05-05 11:31 37.87429 -107.75338 38858 ft 562 kts 104°
2026-05-05 11:31 37.86351 -107.65570 38862 ft 559 kts 104°
2026-05-05 11:32 37.85404 -107.55819 38874 ft 557 kts 103°
2026-05-05 11:32 37.84478 -107.46098 38899 ft 557 kts 103°
2026-05-05 11:33 37.83536 -107.36372 38900 ft 557 kts 103°
2026-05-05 11:33 37.82582 -107.26614 38877 ft 559 kts 103°
2026-05-05 11:34 37.81629 -107.16836 38881 ft 560 kts 103°
2026-05-05 11:34 37.80684 -107.07127 38888 ft 561 kts 103°
2026-05-05 11:35 37.79731 -106.97346 38862 ft 559 kts 102°
2026-05-05 11:35 37.78782 -106.87579 38866 ft 560 kts 102°
2026-05-05 11:36 37.77835 -106.77799 38874 ft 561 kts 102°
2026-05-05 11:36 37.76885 -106.67998 38888 ft 562 kts 102°
2026-05-05 11:37 37.75934 -106.58181 38937 ft 563 kts 101°
2026-05-05 11:37 37.74981 -106.48359 39002 ft 564 kts 102°
2026-05-05 11:38 37.74025 -106.38514 39024 ft 565 kts 102°
2026-05-05 11:38 37.73069 -106.28651 39015 ft 566 kts 102°
2026-05-05 11:39 37.72109 -106.18767 38980 ft 568 kts 102°
2026-05-05 11:39 37.71146 -106.08862 38912 ft 569 kts 102°
2026-05-05 11:40 37.70182 -105.98948 38829 ft 569 kts 102°
2026-05-05 11:40 37.69215 -105.89022 38844 ft 570 kts 102°
2026-05-05 11:41 37.68249 -105.79089 38852 ft 570 kts 102°
2026-05-05 11:41 37.67283 -105.69152 38836 ft 570 kts 102°
2026-05-05 11:42 37.66317 -105.59219 38803 ft 570 kts 101°
2026-05-05 11:42 37.65352 -105.49296 38790 ft 570 kts 101°
2026-05-05 11:43 37.64397 -105.39456 38807 ft 568 kts 101°
2026-05-05 11:43 37.63448 -105.29605 38800 ft 563 kts 102°
2026-05-05 11:44 37.62508 -105.19809 38805 ft 562 kts 102°
2026-05-05 11:44 37.61573 -105.10018 38821 ft 562 kts 101°
2026-05-05 11:45 37.60625 -105.00236 38803 ft 562 kts 102°
2026-05-05 11:45 37.59682 -104.90465 38827 ft 561 kts 101°
2026-05-05 11:46 37.58737 -104.80676 38822 ft 563 kts 102°
2026-05-05 11:46 37.57783 -104.70866 38822 ft 564 kts 102°
2026-05-05 11:47 37.56824 -104.61043 38816 ft 565 kts 102°
2026-05-05 11:47 37.55863 -104.51201 38803 ft 566 kts 102°
2026-05-05 11:48 37.54424 -104.36448 38807 ft 565 kts 102°
2026-05-05 11:48 37.53467 -104.26621 38808 ft 565 kts 102°
2026-05-05 11:49 37.52508 -104.16791 38816 ft 566 kts 101°
2026-05-05 11:49 37.51545 -104.06936 38810 ft 567 kts 101°
2026-05-05 11:50 37.50580 -103.97063 38807 ft 568 kts 101°
2026-05-05 11:50 37.49614 -103.87182 38811 ft 569 kts 101°
2026-05-05 11:51 37.48646 -103.77290 38825 ft 570 kts 101°
2026-05-05 11:51 37.47674 -103.67376 38823 ft 571 kts 101°
2026-05-05 11:52 37.46696 -103.57432 38829 ft 573 kts 101°
2026-05-05 11:52 37.45718 -103.47481 38831 ft 573 kts 100°
2026-05-05 11:53 37.44744 -103.37515 38840 ft 574 kts 100°
2026-05-05 11:53 37.43767 -103.27534 38792 ft 575 kts 100°
2026-05-05 11:54 37.42793 -103.17612 38820 ft 575 kts 100°
2026-05-05 11:54 37.41811 -103.07625 38824 ft 576 kts 100°
2026-05-05 11:55 37.40827 -102.97635 38812 ft 575 kts 100°
2026-05-05 11:55 37.39845 -102.87655 38805 ft 575 kts 100°
2026-05-05 11:56 37.38864 -102.77683 38807 ft 574 kts 100°
2026-05-05 11:56 37.37884 -102.67721 38797 ft 574 kts 100°
2026-05-05 11:57 37.36904 -102.57767 38805 ft 574 kts 100°
2026-05-05 11:57 37.35925 -102.47821 38809 ft 574 kts 100°
2026-05-05 11:58 37.34945 -102.37865 38802 ft 574 kts 100°
2026-05-05 11:58 37.33965 -102.27917 38806 ft 574 kts 100°
2026-05-05 11:59 37.32984 -102.17964 38815 ft 574 kts 100°
2026-05-05 11:59 37.32005 -102.08020 38808 ft 572 kts 100°
2026-05-05 12:00 37.31031 -101.98111 38824 ft 571 kts 99°
2026-05-05 12:00 37.30059 -101.88210 38841 ft 571 kts 100°
2026-05-05 12:01 37.29087 -101.78314 38846 ft 571 kts 100°
2026-05-05 12:01 37.28115 -101.68427 38842 ft 571 kts 100°
2026-05-05 12:02 37.27142 -101.58534 38832 ft 571 kts 99°
2026-05-05 12:02 37.26169 -101.48639 38905 ft 571 kts 99°
2026-05-05 12:03 37.25201 -101.38802 38915 ft 572 kts 99°
2026-05-05 12:03 37.24226 -101.28897 38906 ft 572 kts 99°
2026-05-05 12:04 37.23249 -101.18979 38848 ft 573 kts 99°
2026-05-05 12:04 37.22270 -101.09050 38873 ft 574 kts 99°
2026-05-05 12:05 37.21290 -100.99112 38880 ft 574 kts 99°
2026-05-05 12:05 37.20310 -100.89176 38868 ft 574 kts 99°
2026-05-05 12:06 37.19330 -100.79246 38869 ft 573 kts 99°
2026-05-05 12:06 37.18352 -100.69323 38849 ft 573 kts 99°
2026-05-05 12:07 37.17374 -100.59404 38823 ft 573 kts 99°
2026-05-05 12:07 37.16396 -100.49488 38806 ft 573 kts 99°
2026-05-05 12:08 37.15417 -100.39564 38796 ft 574 kts 99°
2026-05-05 12:08 37.14437 -100.29632 38794 ft 575 kts 99°
2026-05-05 12:09 37.13455 -100.19690 38794 ft 575 kts 99°
2026-05-05 12:09 37.12471 -100.09730 38782 ft 577 kts 99°
2026-05-05 12:10 37.11485 -99.99754 38776 ft 577 kts 99°
2026-05-05 12:10 37.10498 -99.89774 38762 ft 578 kts 99°
2026-05-05 12:11 37.09517 -99.79852 38777 ft 578 kts 99°
2026-05-05 12:11 37.08526 -99.69854 38759 ft 579 kts 99°
2026-05-05 12:12 37.07535 -99.59850 38746 ft 579 kts 99°
2026-05-05 12:12 37.06543 -99.49842 38754 ft 580 kts 99°
2026-05-05 12:13 37.05548 -99.39810 38764 ft 581 kts 99°
2026-05-05 12:13 37.04550 -99.29753 38746 ft 583 kts 99°
2026-05-05 12:14 37.03550 -99.19684 38739 ft 583 kts 99°
2026-05-05 12:14 37.02550 -99.09618 38741 ft 583 kts 99°
2026-05-05 12:15 37.01550 -98.99546 38738 ft 584 kts 99°
2026-05-05 12:15 37.00546 -98.89460 38744 ft 584 kts 99°
2026-05-05 12:16 36.99713 -98.81075 38748 ft 585 kts 99°
2026-05-05 12:16 36.98709 -98.70980 38751 ft 585 kts 98°
2026-05-05 12:17 36.97702 -98.60871 38743 ft 586 kts 98°
2026-05-05 12:17 36.96694 -98.50751 38737 ft 587 kts 98°
2026-05-05 12:18 36.95686 -98.40627 38719 ft 587 kts 98°
2026-05-05 12:18 36.94677 -98.30506 38735 ft 587 kts 98°
2026-05-05 12:19 36.93667 -98.20378 38732 ft 587 kts 98°
2026-05-05 12:19 36.92656 -98.10243 38735 ft 588 kts 98°
2026-05-05 12:20 36.91644 -98.00101 38727 ft 589 kts 98°
2026-05-05 12:20 36.90629 -97.89942 38720 ft 590 kts 98°
2026-05-05 12:21 36.89613 -97.79775 38700 ft 590 kts 98°
2026-05-05 12:21 36.88595 -97.69596 38697 ft 590 kts 98°
2026-05-05 12:22 36.87578 -97.59426 38699 ft 590 kts 98°
2026-05-05 12:22 36.86561 -97.49261 38736 ft 590 kts 98°
2026-05-05 12:23 36.85550 -97.39165 38742 ft 590 kts 98°
2026-05-05 12:23 36.84533 -97.29002 38746 ft 590 kts 98°
2026-05-05 12:24 36.83516 -97.18846 38738 ft 590 kts 98°
2026-05-05 12:24 36.82498 -97.08689 38740 ft 590 kts 98°
2026-05-05 12:25 36.81480 -96.98535 38737 ft 590 kts 98°
2026-05-05 12:25 36.80462 -96.88382 38731 ft 589 kts 98°
2026-05-05 12:26 36.79444 -96.78232 38694 ft 590 kts 98°
2026-05-05 12:26 36.78425 -96.68072 38725 ft 591 kts 98°
2026-05-05 12:27 36.77405 -96.57897 38723 ft 592 kts 98°
2026-05-05 12:27 36.76381 -96.47711 38704 ft 592 kts 98°
2026-05-05 12:28 36.75357 -96.37515 38726 ft 593 kts 98°
2026-05-05 12:28 36.74330 -96.27305 38759 ft 594 kts 98°
2026-05-05 12:29 36.73301 -96.17092 38755 ft 594 kts 98°
2026-05-05 12:29 36.72272 -96.06878 38797 ft 594 kts 98°
2026-05-05 12:30 36.71242 -95.96662 38760 ft 594 kts 98°
2026-05-05 12:30 36.70220 -95.86522 38757 ft 593 kts 98°
2026-05-05 12:31 36.69190 -95.76323 38747 ft 593 kts 98°
2026-05-05 12:31 36.68161 -95.66122 38719 ft 593 kts 98°
2026-05-05 12:32 36.67131 -95.55924 38717 ft 593 kts 98°
2026-05-05 12:32 36.66101 -95.45729 38722 ft 593 kts 98°
2026-05-05 12:33 36.65070 -95.35529 38717 ft 594 kts 98°
2026-05-05 12:33 36.64037 -95.25331 38720 ft 593 kts 97°
2026-05-05 12:34 36.63006 -95.15146 38707 ft 592 kts 97°
2026-05-05 12:34 36.61976 -95.04975 38745 ft 592 kts 97°
2026-05-05 12:35 36.60945 -94.94808 38759 ft 592 kts 97°
2026-05-05 12:35 36.59914 -94.84644 38768 ft 592 kts 97°
2026-05-05 12:36 36.58884 -94.74484 38766 ft 592 kts 97°
2026-05-05 12:36 36.57853 -94.64326 38745 ft 592 kts 97°
2026-05-05 12:37 36.56822 -94.54174 38750 ft 591 kts 97°
2026-05-05 12:37 36.55791 -94.44038 38763 ft 590 kts 97°
2026-05-05 12:38 36.54763 -94.33929 38776 ft 589 kts 97°
2026-05-05 12:38 36.53734 -94.23836 38786 ft 588 kts 97°
2026-05-05 12:39 36.52707 -94.13738 38789 ft 589 kts 97°
2026-05-05 12:39 36.51677 -94.03633 38784 ft 590 kts 97°
2026-05-05 12:40 36.50654 -93.93589 38783 ft 590 kts 97°
2026-05-05 12:40 36.49622 -93.83475 38778 ft 590 kts 96°
2026-05-05 12:41 36.48591 -93.73369 38770 ft 589 kts 97°
2026-05-05 12:41 36.47559 -93.63266 38767 ft 589 kts 97°
2026-05-05 12:42 36.46529 -93.53168 38773 ft 589 kts 97°
2026-05-05 12:42 36.45502 -93.43082 38789 ft 588 kts 97°
2026-05-05 12:43 36.44472 -93.33010 38787 ft 587 kts 96°
2026-05-05 12:43 36.43444 -93.22960 38801 ft 587 kts 96°
2026-05-05 12:44 36.42413 -93.12903 38803 ft 587 kts 96°
2026-05-05 12:44 36.41381 -93.02845 38797 ft 587 kts 96°
2026-05-05 12:45 36.40357 -92.92862 38795 ft 586 kts 96°
2026-05-05 12:45 36.39320 -92.82760 38799 ft 585 kts 96°
2026-05-05 12:46 36.38297 -92.72816 38790 ft 585 kts 96°
2026-05-05 12:46 36.37268 -92.62807 38800 ft 585 kts 96°
2026-05-05 12:47 36.36236 -92.52789 38795 ft 586 kts 96°
2026-05-05 12:47 36.35204 -92.42761 38783 ft 586 kts 96°
2026-05-05 12:48 36.34171 -92.32727 38789 ft 586 kts 96°
2026-05-05 12:48 36.33137 -92.22702 38813 ft 586 kts 95°
2026-05-05 12:49 36.32105 -92.12682 38813 ft 586 kts 95°
2026-05-05 12:49 36.31073 -92.02671 38822 ft 585 kts 95°
2026-05-05 12:50 36.30040 -91.92665 38812 ft 585 kts 95°
2026-05-05 12:50 36.29006 -91.82656 38816 ft 586 kts 95°
2026-05-05 12:51 36.27972 -91.72641 38817 ft 586 kts 95°
2026-05-05 12:51 36.26937 -91.62628 38819 ft 586 kts 95°
2026-05-05 12:52 36.25902 -91.52609 38884 ft 586 kts 95°
2026-05-05 12:52 36.24862 -91.42560 38817 ft 590 kts 94°
2026-05-05 12:53 36.23819 -91.32475 38814 ft 591 kts 94°
2026-05-05 12:53 36.22775 -91.22363 38818 ft 592 kts 94°
2026-05-05 12:54 36.21206 -91.07180 38810 ft 593 kts 94°
2026-05-05 12:55 36.20159 -90.97062 38803 ft 592 kts 94°
2026-05-05 12:55 36.19113 -90.86964 38869 ft 591 kts 94°
2026-05-05 12:56 36.18068 -90.76889 38860 ft 590 kts 94°
2026-05-05 12:56 36.17020 -90.66807 38852 ft 591 kts 93°
2026-05-05 12:57 36.15973 -90.56720 38842 ft 591 kts 93°
2026-05-05 12:57 36.14924 -90.46619 38827 ft 592 kts 93°
2026-05-05 12:58 36.13874 -90.36519 38879 ft 592 kts 92°
2026-05-05 12:58 36.12822 -90.26397 38859 ft 594 kts 92°
2026-05-05 12:59 36.11776 -90.16328 38865 ft 594 kts 92°
2026-05-05 12:59 36.10717 -90.06128 38875 ft 594 kts 92°
2026-05-05 13:00 36.09146 -89.90996 38881 ft 595 kts 92°
2026-05-05 13:01 36.07040 -89.70705 38878 ft 595 kts 92°
2026-05-05 13:01 36.05986 -89.60564 38848 ft 595 kts 92°
2026-05-05 13:02 36.04931 -89.50417 38856 ft 595 kts 92°
2026-05-05 13:02 36.03876 -89.40280 38855 ft 595 kts 92°
2026-05-05 13:03 36.02820 -89.30152 38865 ft 594 kts 92°
2026-05-05 13:03 36.01762 -89.20025 38882 ft 594 kts 92°
2026-05-05 13:04 36.00703 -89.09897 38867 ft 595 kts 92°
2026-05-05 13:04 35.99642 -88.99769 38880 ft 594 kts 92°
2026-05-05 13:05 35.98582 -88.89646 38870 ft 594 kts 92°
2026-05-05 13:05 35.97699 -88.81236 38902 ft 595 kts 91°
2026-05-05 13:06 35.96460 -88.69462 38906 ft 595 kts 91°
2026-05-05 13:06 35.95566 -88.60972 38918 ft 595 kts 91°
2026-05-05 13:07 35.94498 -88.50843 38918 ft 595 kts 91°
2026-05-05 13:07 35.93428 -88.40719 38922 ft 594 kts 91°
2026-05-05 13:08 35.92358 -88.30619 38921 ft 593 kts 91°
2026-05-05 13:08 35.91287 -88.20538 38922 ft 592 kts 91°
2026-05-05 13:09 35.90214 -88.10465 38919 ft 592 kts 91°
2026-05-05 13:09 35.89139 -88.00427 38920 ft 589 kts 90°
2026-05-05 13:10 35.88064 -87.90449 38929 ft 586 kts 91°
2026-05-05 13:10 35.86986 -87.80514 38935 ft 584 kts 91°
2026-05-05 13:11 35.85907 -87.70597 38952 ft 584 kts 91°
2026-05-05 13:11 35.84824 -87.60692 38949 ft 583 kts 91°
2026-05-05 13:12 35.83740 -87.50805 38941 ft 582 kts 91°
2026-05-05 13:12 35.82653 -87.40928 38947 ft 581 kts 91°
2026-05-05 13:13 35.81562 -87.31066 38953 ft 580 kts 91°
2026-05-05 13:13 35.80467 -87.21218 38960 ft 581 kts 91°
2026-05-05 13:14 35.79380 -87.11425 38962 ft 581 kts 91°
2026-05-05 13:14 35.78287 -87.01562 38963 ft 582 kts 91°
2026-05-05 13:15 35.77190 -86.91688 38968 ft 581 kts 90°
2026-05-05 13:15 35.76093 -86.81845 38980 ft 580 kts 91°
2026-05-05 13:16 35.74992 -86.72018 38983 ft 579 kts 91°
2026-05-05 13:16 35.73892 -86.62206 38987 ft 578 kts 91°
2026-05-05 13:17 35.72790 -86.52414 38996 ft 577 kts 90°
2026-05-05 13:17 35.71685 -86.42641 38991 ft 576 kts 90°
2026-05-05 13:18 35.70577 -86.32878 38997 ft 576 kts 90°
2026-05-05 13:18 35.69468 -86.23125 38975 ft 576 kts 90°
2026-05-05 13:19 35.68356 -86.13375 39015 ft 575 kts 90°
2026-05-05 13:19 35.67241 -86.03655 38992 ft 573 kts 90°
2026-05-05 13:20 35.66126 -85.93966 39021 ft 572 kts 90°
2026-05-05 13:20 35.65009 -85.84282 39019 ft 572 kts 90°
2026-05-05 13:21 35.63891 -85.74594 39026 ft 573 kts 90°
2026-05-05 13:21 35.62773 -85.64963 39024 ft 573 kts 90°
2026-05-05 13:22 35.61644 -85.55257 39013 ft 574 kts 90°
2026-05-05 13:22 35.60512 -85.45554 39015 ft 574 kts 90°
2026-05-05 13:23 35.59379 -85.35859 39014 ft 572 kts 90°
2026-05-05 13:23 35.58248 -85.26207 39012 ft 570 kts 90°
2026-05-05 13:24 35.57126 -85.16598 39019 ft 568 kts 90°
2026-05-05 13:24 35.55999 -85.06994 39010 ft 568 kts 90°
2026-05-05 13:25 35.54868 -84.97409 39008 ft 566 kts 90°
2026-05-05 13:25 35.53737 -84.87866 39025 ft 564 kts 90°
2026-05-05 13:26 35.52601 -84.78344 39045 ft 564 kts 90°
2026-05-05 13:26 35.51464 -84.68821 39059 ft 564 kts 90°
2026-05-05 13:27 35.50320 -84.59292 39075 ft 565 kts 90°
2026-05-05 13:27 35.49172 -84.49764 39065 ft 564 kts 90°
2026-05-05 13:28 35.48021 -84.40244 39050 ft 564 kts 90°
2026-05-05 13:28 35.46868 -84.30730 39013 ft 564 kts 90°
2026-05-05 13:29 35.45720 -84.21303 39025 ft 561 kts 90°
2026-05-05 13:29 35.44562 -84.11855 39030 ft 559 kts 90°
2026-05-05 13:30 35.43395 -84.02440 39055 ft 559 kts 90°
2026-05-05 13:30 35.42220 -83.93012 39064 ft 560 kts 90°
2026-05-05 13:31 35.41047 -83.83588 39087 ft 558 kts 90°
2026-05-05 13:31 35.39865 -83.74376 39050 ft 531 kts 90°
2026-05-05 13:32 35.39272 -83.69990 39043 ft 513 kts 90°
2026-05-05 13:32 35.38679 -83.65747 39022 ft 496 kts 90°
2026-05-05 13:32 35.38087 -83.61660 39039 ft 479 kts 90°
2026-05-05 13:32 35.37491 -83.57716 39004 ft 464 kts 90°
2026-05-05 13:33 35.36867 -83.53879 38751 ft 457 kts 91°
2026-05-05 13:33 35.36200 -83.50045 37889 ft 466 kts 93°
2026-05-05 13:33 35.35445 -83.46118 36861 ft 479 kts 96°
2026-05-05 13:33 35.34610 -83.42147 36237 ft 481 kts 97°
2026-05-05 13:34 35.33760 -83.38231 36067 ft 469 kts 97°
2026-05-05 13:34 35.32965 -83.34429 36006 ft 454 kts 95°
2026-05-05 13:34 35.32237 -83.30709 35659 ft 447 kts 94°
2026-05-05 13:34 35.31595 -83.26979 35002 ft 449 kts 92°
2026-05-05 13:35 35.31056 -83.23194 34315 ft 453 kts 90°
2026-05-05 13:35 35.30587 -83.19391 33844 ft 450 kts 90°
2026-05-05 13:35 35.30155 -83.15642 33612 ft 439 kts 89°
2026-05-05 13:35 35.29775 -83.11998 33494 ft 425 kts 88°
2026-05-05 13:36 35.29445 -83.08444 33199 ft 417 kts 87°
2026-05-05 13:36 35.29148 -83.04919 32644 ft 417 kts 87°
2026-05-05 13:36 35.28886 -83.01374 32069 ft 419 kts 87°
2026-05-05 13:36 35.28662 -82.97833 31639 ft 414 kts 86°
2026-05-05 13:37 35.28486 -82.94356 31443 ft 404 kts 86°
2026-05-05 13:37 35.28318 -82.90970 31255 ft 394 kts 86°
2026-05-05 13:37 35.28140 -82.87640 30892 ft 391 kts 88°
2026-05-05 13:37 35.27922 -82.84317 30404 ft 393 kts 90°
2026-05-05 13:38 35.27599 -82.81029 29911 ft 395 kts 94°
2026-05-05 13:38 35.27132 -82.77732 29553 ft 391 kts 98°
2026-05-05 13:38 35.26552 -82.74525 29414 ft 379 kts 101°
2026-05-05 13:38 35.25872 -82.71465 29290 ft 368 kts 105°
2026-05-05 13:39 35.25062 -82.68509 28840 ft 367 kts 109°
2026-05-05 13:39 35.24117 -82.65585 28177 ft 373 kts 112°
2026-05-05 13:39 35.23038 -82.62685 27631 ft 375 kts 115°
2026-05-05 13:39 35.21850 -82.59876 27375 ft 367 kts 119°
2026-05-05 13:40 35.20584 -82.57217 27198 ft 357 kts 122°
2026-05-05 13:40 35.19243 -82.54693 26886 ft 352 kts 125°
2026-05-05 13:40 35.17818 -82.52258 26372 ft 353 kts 128°
2026-05-05 13:40 35.16305 -82.49882 25837 ft 355 kts 131°
2026-05-05 13:41 35.14713 -82.47602 25505 ft 350 kts 133°
2026-05-05 13:41 35.13087 -82.45441 25281 ft 341 kts 136°
2026-05-05 13:41 35.11432 -82.43396 25003 ft 336 kts 139°
2026-05-05 13:41 35.09728 -82.41456 24612 ft 335 kts 141°
2026-05-05 13:42 35.07958 -82.39605 24206 ft 334 kts 143°
2026-05-05 13:42 35.06138 -82.37858 23875 ft 331 kts 146°
2026-05-05 13:42 35.04284 -82.36229 23592 ft 325 kts 149°
2026-05-05 13:42 35.02409 -82.34722 23257 ft 320 kts 152°
2026-05-05 13:43 35.00507 -82.33334 22851 ft 317 kts 154°
2026-05-05 13:43 34.98573 -82.32058 22433 ft 315 kts 157°
2026-05-05 13:43 34.96607 -82.30901 22059 ft 312 kts 160°
2026-05-05 13:43 34.94626 -82.29870 21743 ft 307 kts 162°
2026-05-05 13:44 34.92643 -82.28969 21419 ft 302 kts 165°
2026-05-05 13:44 34.90652 -82.28195 21064 ft 299 kts 168°
2026-05-05 13:44 34.88649 -82.27551 20687 ft 297 kts 171°
2026-05-05 13:44 34.86642 -82.27031 20333 ft 293 kts 174°
2026-05-05 13:45 34.84641 -82.26635 20023 ft 289 kts 177°
2026-05-05 13:45 34.82658 -82.26365 19722 ft 285 kts 180°
2026-05-05 13:45 34.80693 -82.26225 19398 ft 281 kts 183°
2026-05-05 13:45 34.78746 -82.26220 19049 ft 279 kts 186°
2026-05-05 13:46 34.76815 -82.26334 18716 ft 277 kts 188°
2026-05-05 13:46 34.74911 -82.26549 18417 ft 273 kts 191°
2026-05-05 13:46 34.73032 -82.26831 18028 ft 272 kts 192°
2026-05-05 13:46 34.71164 -82.27169 17622 ft 271 kts 193°
2026-05-05 13:47 34.69317 -82.27592 17270 ft 269 kts 196°
2026-05-05 13:47 34.67512 -82.28106 16968 ft 264 kts 199°
2026-05-05 13:47 34.65757 -82.28724 16654 ft 261 kts 201°
2026-05-05 13:47 34.64054 -82.29452 16310 ft 259 kts 205°
2026-05-05 13:48 34.62405 -82.30313 15951 ft 257 kts 208°
2026-05-05 13:48 34.60818 -82.31298 15608 ft 255 kts 212°
2026-05-05 13:48 34.59303 -82.32394 15295 ft 252 kts 216°
2026-05-05 13:48 34.57884 -82.33613 15001 ft 249 kts 220°
2026-05-05 13:49 34.56567 -82.34965 14670 ft 248 kts 224°
2026-05-05 13:49 34.55349 -82.36438 14331 ft 247 kts 229°
2026-05-05 13:49 34.54235 -82.38011 14018 ft 245 kts 232°
2026-05-05 13:49 34.53209 -82.39654 13728 ft 243 kts 235°
2026-05-05 13:50 34.52269 -82.41340 13407 ft 240 kts 237°
2026-05-05 13:50 34.51415 -82.43077 13093 ft 239 kts 240°
2026-05-05 13:50 34.50650 -82.44865 12747 ft 239 kts 243°
2026-05-05 13:50 34.49983 -82.46709 12397 ft 239 kts 247°
2026-05-05 13:51 34.49420 -82.48604 12053 ft 239 kts 251°
2026-05-05 13:51 34.48982 -82.50552 11716 ft 240 kts 255°
2026-05-05 13:51 34.48664 -82.52534 11417 ft 239 kts 258°
2026-05-05 13:51 34.48462 -82.54526 11116 ft 238 kts 262°
2026-05-05 13:52 34.48357 -82.56522 10819 ft 238 kts 265°
2026-05-05 13:52 34.48337 -82.58527 10493 ft 238 kts 268°
2026-05-05 13:52 34.48429 -82.60512 10172 ft 240 kts 271°
2026-05-05 13:52 34.48559 -82.61870 9969 ft 240 kts 274°
2026-05-05 13:53 34.48847 -82.63860 9681 ft 239 kts 278°
2026-05-05 13:53 34.49393 -82.66438 9281 ft 238 kts 282°
2026-05-05 13:53 34.49889 -82.68354 8957 ft 238 kts 284°
2026-05-05 13:53 34.50419 -82.70258 8660 ft 238 kts 285°
2026-05-05 13:54 34.50963 -82.72143 8377 ft 236 kts 287°
2026-05-05 13:54 34.51566 -82.73992 8094 ft 235 kts 290°
2026-05-05 13:54 34.52020 -82.75212 7904 ft 235 kts 292°
2026-05-05 13:54 34.52768 -82.76976 7614 ft 235 kts 295°
2026-05-05 13:55 34.53586 -82.78682 7336 ft 234 kts 298°
2026-05-05 13:55 34.54454 -82.80307 7091 ft 232 kts 301°
2026-05-05 13:55 34.55404 -82.81888 6792 ft 233 kts 305°
2026-05-05 13:55 34.56462 -82.83379 6489 ft 234 kts 310°
2026-05-05 13:56 34.57619 -82.84761 6220 ft 232 kts 315°
2026-05-05 13:56 34.58845 -82.86024 5957 ft 230 kts 319°
2026-05-05 13:56 34.60127 -82.87174 5670 ft 229 kts 322°
2026-05-05 13:56 34.61466 -82.88226 5362 ft 230 kts 326°
2026-05-05 13:57 34.62866 -82.89179 5060 ft 230 kts 330°
2026-05-05 13:57 34.64306 -82.90011 4808 ft 229 kts 333°
2026-05-05 13:57 34.65763 -82.90785 4514 ft 228 kts 334°
2026-05-05 13:57 34.67240 -82.91496 4224 ft 228 kts 336°
2026-05-05 13:58 34.68748 -82.92113 3893 ft 230 kts 339°
2026-05-05 13:58 34.70302 -82.92628 3572 ft 232 kts 344°
2026-05-05 13:58 34.71889 -82.92985 3291 ft 232 kts 348°
2026-05-05 13:58 34.73502 -82.93176 2990 ft 233 kts 354°
2026-05-05 13:59 34.76741 -82.93108 2472 ft 232 kts
2026-05-05 13:59 34.78334 -82.92846 2210 ft 230 kts
2026-05-05 14:00 34.81329 -82.91933 1966 ft 213 kts 19°
2026-05-05 14:00 34.82717 -82.91248 1524 ft 220 kts 25°
2026-05-05 14:00 34.84100 -82.90370 1080 ft 227 kts 30°
2026-05-05 14:00 34.85417 -82.89347 944 ft 219 kts 35°
2026-05-05 14:01 34.88030 -82.86808 1226 ft 301 kts 39°
2026-05-05 14:01 34.89684 -82.85135 1295 ft 303 kts 39°
2026-05-05 14:01 34.91325 -82.83490 1413 ft 304 kts 39°
2026-05-05 14:02 34.93109 -82.81754 1432 ft 306 kts 38°
2026-05-05 14:02 34.94678 -82.80254 2364 ft 316 kts 38°
2026-05-05 14:02 34.96408 -82.78572 1863 ft 319 kts 39°
2026-05-05 14:02 34.97914 -82.77048 1988 ft 312 kts 42°
2026-05-05 14:03 34.99479 -82.75050 1784 ft 316 kts 48°
2026-05-05 14:03 35.00590 -82.73519 1827 ft 506 kts 49°
2026-05-05 14:03 35.02333 -82.71129 1908 ft 312 kts 48°
2026-05-05 14:03 35.03786 -82.69168 1422 ft 313 kts 48°
2026-05-05 14:04 35.04886 -82.67721 1791 ft 310 kts 47°
2026-05-05 14:04 35.06510 -82.65687 1862 ft 309 kts 45°
2026-05-05 14:04 35.07890 -82.63953 1875 ft 316 kts 46°
2026-05-05 14:04 35.09422 -82.61996 2789 ft 505 kts 47°
2026-05-05 14:05 35.10622 -82.60432 3455 ft 329 kts 48°
2026-05-05 14:05 35.12158 -82.58355 3105 ft 329 kts 46°
2026-05-05 14:05 35.14008 -82.56282 3332 ft 332 kts 40°
2026-05-05 14:05 35.15748 -82.54410 3115 ft 331 kts 41°
2026-05-05 14:06 35.17106 -82.52884 3532 ft 331 kts 43°
2026-05-05 14:06 35.18612 -82.51210 3134 ft 329 kts 43°
2026-05-05 14:06 35.20329 -82.49171 2896 ft 339 kts 46°
2026-05-05 14:06 35.21848 -82.47194 3046 ft 511 kts 48°
2026-05-05 14:07 35.23484 -82.45051 3305 ft 513 kts 44°
2026-05-05 14:07 35.25190 -82.43108 2885 ft 336 kts 42°
2026-05-05 14:07 35.26592 -82.41621 2932 ft 329 kts 40°
2026-05-05 14:07 35.28301 -82.39907 2787 ft 505 kts 39°
2026-05-05 14:08 35.30043 -82.38151 2884 ft 507 kts 40°
2026-05-05 14:08 35.31716 -82.36321 2995 ft 320 kts 43°
2026-05-05 14:08 35.33356 -82.34459 2477 ft 324 kts 41°
2026-05-05 14:08 35.34895 -82.32814 3306 ft 509 kts 41°
2026-05-05 14:09 35.36570 -82.30931 2943 ft 328 kts 42°
2026-05-05 14:09 35.38138 -82.29118 3147 ft 331 kts 43°
2026-05-05 14:09 35.39791 -82.27113 4008 ft 511 kts 44°
2026-05-05 14:09 35.41408 -82.25055 3458 ft 337 kts 47°
2026-05-05 14:10 35.43012 -82.22793 1532 ft 368 kts 50°
2026-05-05 14:10 35.44155 -82.21095 1746 ft 308 kts 51°
2026-05-05 14:10 35.45587 -82.19018 1843 ft 314 kts 50°
2026-05-05 14:10 35.47080 -82.16897 2445 ft 312 kts 50°
2026-05-05 14:11 35.48498 -82.14843 1889 ft 318 kts 50°
2026-05-05 14:11 35.49935 -82.12769 1828 ft 309 kts 50°
2026-05-05 14:11 35.51135 -82.11025 1893 ft 306 kts 50°
2026-05-05 14:11 35.52541 -82.08935 1963 ft 305 kts 52°
2026-05-05 14:12 35.53688 -82.07201 1844 ft 299 kts 51°
2026-05-05 14:12 35.55083 -82.05098 2243 ft 306 kts 51°
2026-05-05 14:12 35.56403 -82.03069 2319 ft 302 kts 52°
2026-05-05 14:12 35.57451 -82.01437 2170 ft 300 kts 52°
2026-05-05 14:13 35.59780 -81.97766 1905 ft 303 kts 52°
2026-05-05 14:13 35.61159 -81.95599 2405 ft 305 kts 52°
2026-05-05 14:13 35.62490 -81.93516 1850 ft 312 kts 53°
2026-05-05 14:14 35.63502 -81.91862 2616 ft 501 kts 53°
2026-05-05 14:14 35.64771 -81.89720 2093 ft 314 kts 56°
2026-05-05 14:14 35.66039 -81.87414 1906 ft 305 kts 57°
2026-05-05 14:14 35.67093 -81.85492 1896 ft 303 kts 56°
2026-05-05 14:15 35.68316 -81.83320 1918 ft 303 kts 55°
2026-05-05 14:15 35.69585 -81.81118 1962 ft 302 kts 54°
2026-05-05 14:15 35.70945 -81.78788 1890 ft 305 kts 54°
2026-05-05 14:15 35.71994 -81.76997 1794 ft 497 kts 54°
2026-05-05 14:16 35.74152 -81.73352 1610 ft 302 kts 53°
2026-05-05 14:16 35.75564 -81.71065 1527 ft 300 kts 52°
2026-05-05 14:16 35.76943 -81.68831 1526 ft 301 kts 53°
2026-05-05 14:17 35.77841 -81.67357 1769 ft 300 kts 53°
2026-05-05 14:17 35.79102 -81.65295 1819 ft 302 kts 53°
2026-05-05 14:17 35.80427 -81.63131 1866 ft 303 kts 53°
2026-05-05 14:17 35.81743 -81.61004 1913 ft 310 kts 52°
2026-05-05 14:18 35.82722 -81.59404 1911 ft 500 kts 53°
2026-05-05 14:18 35.84106 -81.57096 1912 ft 305 kts 54°
2026-05-05 14:18 35.85409 -81.54926 2003 ft 316 kts 54°
2026-05-05 14:18 35.86729 -81.52737 1462 ft 320 kts 54°
2026-05-05 14:19 35.89284 -81.48699 2341 ft 504 kts 50°
2026-05-05 14:19 35.90746 -81.46653 1874 ft 320 kts 48°
2026-05-05 14:19 35.92293 -81.44519 1985 ft 323 kts 48°
2026-05-05 14:20 35.93586 -81.42727 2117 ft 316 kts 49°
2026-05-05 14:20 35.95117 -81.40572 2325 ft 318 kts 49°
2026-05-05 14:20 35.96109 -81.39194 2550 ft 315 kts 49°
2026-05-05 14:20 35.97543 -81.37258 2397 ft 311 kts 47°
2026-05-05 14:21 35.99214 -81.35152 2481 ft 314 kts 44°
2026-05-05 14:21 36.00969 -81.33109 2320 ft 312 kts 42°
2026-05-05 14:21 36.02616 -81.31319 1849 ft 317 kts 41°
2026-05-05 14:21 36.03826 -81.30006 1954 ft 310 kts 41°
2026-05-05 14:22 36.05718 -81.27950 1904 ft 314 kts 41°
2026-05-05 14:22 36.06999 -81.26558 1877 ft 500 kts 41°
2026-05-05 14:22 36.08639 -81.24836 1927 ft 502 kts 38°
2026-05-05 14:22 36.10502 -81.23038 2040 ft 507 kts 37°
2026-05-05 14:23 36.12255 -81.21348 1637 ft 318 kts 40°
2026-05-05 14:23 36.13960 -81.19556 1734 ft 320 kts 41°
2026-05-05 14:23 36.15174 -81.18247 1722 ft 303 kts 42°
2026-05-05 14:23 36.16869 -81.16385 1801 ft 503 kts 42°
2026-05-05 14:24 36.18425 -81.14640 1891 ft 317 kts 43°
2026-05-05 14:24 36.20026 -81.12737 1518 ft 318 kts 45°
2026-05-05 14:24 36.21480 -81.10916 1747 ft 311 kts 45°
2026-05-05 14:24 36.23100 -81.08884 1771 ft 304 kts 45°
2026-05-05 14:25 36.24228 -81.07502 1966 ft 313 kts 45°
2026-05-05 14:25 36.25960 -81.05381 1867 ft 309 kts 45°
2026-05-05 14:25 36.27527 -81.03447 2011 ft 314 kts 46°
2026-05-05 14:25 36.28781 -81.01893 1979 ft 303 kts 45°
2026-05-05 14:26 36.30163 -81.00129 2180 ft 504 kts 47°
2026-05-05 14:26 36.31771 -80.97991 2295 ft 498 kts 47°
2026-05-05 14:26 36.33236 -80.96067 1725 ft 310 kts 45°
2026-05-05 14:26 36.34515 -80.94504 1922 ft 305 kts 45°
2026-05-05 14:27 36.36251 -80.92406 1847 ft 311 kts 44°
2026-05-05 14:27 36.37390 -80.91045 2073 ft 308 kts 44°
2026-05-05 14:27 36.39103 -80.89014 2016 ft 319 kts 45°
2026-05-05 14:27 36.40359 -80.87433 2019 ft 499 kts 47°
2026-05-05 14:28 36.41924 -80.85304 1958 ft 306 kts 49°
2026-05-05 14:28 36.43369 -80.83347 2110 ft 500 kts 48°
2026-05-05 14:28 36.44824 -80.81417 1523 ft 310 kts 46°
2026-05-05 14:28 36.46117 -80.79804 1748 ft 306 kts 46°
2026-05-05 14:29 36.47778 -80.77737 1745 ft 307 kts 46°
2026-05-05 14:29 36.49066 -80.76082 1833 ft 306 kts 46°
2026-05-05 14:29 36.50219 -80.74586 1856 ft 497 kts 47°
2026-05-05 14:29 36.51676 -80.72650 1914 ft 305 kts 48°
2026-05-05 14:30 36.53229 -80.70578 1889 ft 310 kts 47°
2026-05-05 14:30 36.54731 -80.68620 1443 ft 313 kts 47°
2026-05-05 14:30 36.55938 -80.66958 1719 ft 310 kts 48°
2026-05-05 14:30 36.57589 -80.64744 1709 ft 309 kts 47°
2026-05-05 14:31 36.59143 -80.62721 1768 ft 311 kts 46°
2026-05-05 14:31 36.60138 -80.61472 2044 ft 306 kts 46°
2026-05-05 14:31 36.61683 -80.59525 2125 ft 318 kts 46°
2026-05-05 14:31 36.63419 -80.57340 2110 ft 306 kts 46°
2026-05-05 14:32 36.64475 -80.56026 3120 ft 317 kts 45°
2026-05-05 14:32 36.66448 -80.53581 3366 ft 316 kts 44°
2026-05-05 14:32 36.67571 -80.52267 3253 ft 509 kts 40°
2026-05-05 14:32 36.69430 -80.50247 3396 ft 512 kts 40°
2026-05-05 14:33 36.71189 -80.48387 3077 ft 332 kts 39°
2026-05-05 14:33 36.72782 -80.46777 3295 ft 320 kts 39°
2026-05-05 14:33 36.74551 -80.44993 3382 ft 323 kts 38°
2026-05-05 14:33 36.76046 -80.43525 3449 ft 324 kts 38°
2026-05-05 14:34 36.77683 -80.41747 3518 ft 331 kts 41°
2026-05-05 14:34 36.79387 -80.39832 3667 ft 327 kts 42°
2026-05-05 14:34 36.81086 -80.37752 3827 ft 325 kts 44°
2026-05-05 14:34 36.82736 -80.35655 3592 ft 340 kts 45°
2026-05-05 14:35 36.84327 -80.33550 3264 ft 321 kts 46°
2026-05-05 14:35 36.85884 -80.31510 2730 ft 326 kts 46°
2026-05-05 14:35 36.87127 -80.29870 2941 ft 326 kts 45°
2026-05-05 14:35 36.88759 -80.27796 2951 ft 318 kts 45°
2026-05-05 14:36 36.90165 -80.25973 3244 ft 324 kts 45°
2026-05-05 14:36 36.91628 -80.24011 3150 ft 323 kts 46°
2026-05-05 14:36 36.93320 -80.21736 3098 ft 320 kts 46°
2026-05-05 14:36 36.94526 -80.20118 3032 ft 314 kts 46°
2026-05-05 14:37 36.95921 -80.18304 3215 ft 324 kts 44°
2026-05-05 14:37 36.97591 -80.16154 3271 ft 325 kts 47°
2026-05-05 14:37 36.99105 -80.14022 2788 ft 328 kts 49°
2026-05-05 14:37 37.00729 -80.11619 2768 ft 327 kts 50°
2026-05-05 14:38 37.01687 -80.10180 3186 ft 319 kts 49°
2026-05-05 14:38 37.03457 -80.07727 2070 ft 318 kts 47°
2026-05-05 14:38 37.04981 -80.05685 1647 ft 321 kts 48°
2026-05-05 14:38 37.05313 -80.05216 1351 ft 0 kts 47°